GFSWCAN_850_dewp_102.txt.gz
Dewpoint
-5 -6 -7 -7 -7 -6 -5 -6 -6 -6 -6 -6 -5 -4 -4 -5 -5 -5 -3 -3 -2 -3 -4 -5 -5 -5 -2 -3 -2 0 -0 -1 2 2 0 -2 -1 -2 -1 -3 4 3 4 3 2 2 2 -3 -2 2 3 -0 2 2
-5 -6 -6 -5 -6 -6 -7 -8 -7 -6 -5 -4 -4 -5 -4 -4 -5 -5 -3 -3 -2 -2 -4 -3 -4 -5 -5 -3 -1 -1 -0 -1 0 2 1 3 2 1 1 2 -0 5 -1 2 0 0 -2 -2 -1 2 1 1 1 1
-7 -8 -8 -9 -8 -7 -7 -7 -6 -4 -3 -3 -3 -3 -4 -4 -4 -4 -4 -3 -2 -2 -2 -3 -4 -5 -4 -3 -5 -3 -4 -5 -4 1 2 3 2 2 4 2 3 -1 0 1 2 0 1 -1 -3 -1 -1 -1 -1 -1
-6 -6 -9 -8 -6 -6 -6 -5 -4 -3 -3 -3 -3 -3 -4 -3 -4 -4 -4 -4 -2 -2 -3 -5 -6 -3 -5 -5 -4 -3 -2 -4 -4 -2 0 2 1 -2 2 2 3 0 -3 -2 -1 -0 -1 -1 -2 -1 -2 -3 -2 -1
-5 -5 -5 -5 -6 -5 -4 -3 -2 -2 -2 -2 -3 -3 -3 -4 -4 -4 -4 -4 -3 -3 -3 -3 -3 -6 -5 -3 -3 -4 -4 -2 -1 -0 1 2 -2 -1 -1 -1 -0 -4 -4 -2 2 0 -0 0 -3 -5 -4 -4 0 1
-4 -4 -4 -4 -3 -2 -1 -1 -1 -1 -2 -2 -2 -2 -3 -3 -3 -2 -2 -3 -3 -3 -2 -3 -4 -2 -4 -3 -3 -3 -3 -3 -0 1 1 -0 -2 -1 1 -2 -5 -5 -2 -3 -3 -4 -6 -5 -6 -5 -5 -0 1 2
-3 -3 -3 -1 -1 -1 -1 -1 -1 -0 -1 -1 -2 -2 -2 -2 -2 -2 -2 -2 -5 -3 -2 -1 -4 -6 -4 -1 -1 -1 -2 -1 0 0 1 -1 -2 -2 3 1 -4 -4 -5 -5 -6 -6 -5 -5 -3 -3 -4 0 1 0
-1 -1 -1 -0 -1 -1 -2 -2 -1 -0 -0 -1 -2 -2 -2 -2 -2 -2 -2 -1 -1 -2 -1 0 -0 -2 -2 0 -0 -1 -1 -0 0 1 1 1 -2 -1 2 -3 -5 -6 -7 -6 -5 -6 -2 -2 -2 -4 -3 0 1 -0
-1 -1 -1 -1 -1 -1 -1 -2 -1 -0 -1 -1 -1 -2 -2 -2 -1 -2 -2 -1 -1 -1 -1 -1 -1 -2 -1 -1 -1 -1 -1 1 -1 1 -1 -3 -1 0 -3 -5 -5 -6 -6 -6 -6 -4 -2 -4 1 -1 -0 -0 1 -0
-1 -2 -1 -2 -2 -1 -2 -1 -2 -1 -1 -1 -2 -1 -2 -1 -1 -1 -2 -1 -1 -1 -0 -0 -3 -0 -1 -1 1 -0 -1 -0 0 -1 -3 0 -1 -4 -5 -5 -6 -6 -4 -2 -2 -2 -1 -1 -1 0 0 1 1 -1
-1 -1 -1 -0 -1 -1 -1 -1 -1 -1 -1 -1 -1 -1 -1 -1 -2 -1 -2 -1 -1 0 -1 -1 -3 -1 -2 1 1 -1 1 -0 0 -3 -1 -1 -2 0 -1 -1 -1 -1 -1 -1 -1 -1 -1 -1 -1 -1 -0 0 -1 -2
-1 -1 -1 -2 -2 -1 -1 -1 -1 -1 -1 -1 -1 -1 -1 -1 -1 0 1 -0 -1 -3 -2 -1 -3 -3 -1 -0 1 1 0 1 0 1 3 -1 -1 -3 -3 -3 -3 -3 -2 -2 -2 -2 -2 -1 -1 -0 0 -1 -2 -3
-1 -0 -0 -1 -1 -0 -1 -1 -1 -1 -1 -1 -1 -1 -0 -1 1 -1 -0 -1 -1 -0 -2 -1 1 0 0 -0 1 1 1 -0 -2 2 -0 -1 -4 -4 -4 -3 -4 -4 -5 -4 -4 -4 -3 -3 -2 -1 -1 -2 -4 -5
-1 -1 -1 -0 -1 -1 -1 -1 -1 -1 -0 -1 -1 0 0 0 -0 -1 -1 -1 0 -0 -2 -1 0 0 0 1 0 -1 -0 0 0 1 -1 -3 -4 -5 -5 -5 -5 -5 -6 -6 -6 -6 -6 -5 -5 -4 -4 -5 -5 -7
-1 -1 -1 -1 -1 -1 -1 -1 -1 -2 -3 -3 -3 -2 -2 -3 -3 -2 -1 -1 -2 -0 -1 -1 -1 -1 1 1 0 0 1 1 0 -1 -3 -5 -5 -6 -6 -6 -7 -7 -7 -8 -8 -8 -8 -8 -8 -8 -9 -8 -8 -9
-2 -1 -1 -1 -1 -1 -1 -1 -6 -7 -6 -6 -5 -4 -3 -3 -2 -3 -2 -3 -3 -1 -0 -0 0 0 1 0 1 -0 -1 -1 -3 -4 -5 -6 -6 -6 -7 -7 -8 -8 -9 -9 -9 -10 -10 -10 -10 -11 -11 -11 -11 -11
-1 -2 -2 -2 -1 -5 -5 -6 -7 -6 -6 -6 -6 -5 -4 -5 -4 -4 -4 -4 -4 -2 1 0 2 0 0 -0 -0 -3 -3 -4 -6 -6 -6 -7 -7 -7 -8 -8 -9 -9 -9 -10 -11 -11 -12 -12 -12 -12 -13 -13 -13 -13
-2 -6 -6 -7 -8 -8 -8 -5 -6 -8 -7 -5 -6 -6 -7 -6 -5 -6 -5 -5 -4 -2 -1 -2 -3 -1 -2 -1 -3 -4 -5 -5 -6 -7 -7 -8 -8 -9 -9 -9 -10 -10 -11 -11 -12 -12 -13 -13 -13 -14 -14 -14 -14 -14
-3 -2 -4 -2 -3 -4 -6 -6 -7 -8 -6 -6 -6 -6 -7 -7 -8 -8 -7 -6 -6 -5 -5 -5 -6 -6 -6 -8 -8 -8 -7 -7 -7 -7 -8 -10 -10 -10 -10 -10 -10 -11 -11 -11 -11 -12 -12 -13 -14 -14 -14 -15 -15 -15
-3 -1 -2 -3 -5 -6 -6 -6 -7 -7 -6 -7 -7 -7 -8 -8 -8 -8 -8 -8 -7 -8 -9 -9 -9 -10 -10 -10 -9 -9 -8 -9 -8 -7 -8 -8 -9 -11 -10 -10 -11 -11 -11 -12 -13 -13 -13 -14 -14 -14 -15 -15 -15 -15
-6 -7 -6 -6 -5 -5 -5 -6 -7 -7 -7 -7 -7 -8 -8 -9 -10 -10 -10 -10 -12 -12 -11 -12 -11 -11 -11 -11 -11 -10 -10 -10 -9 -9 -9 -9 -10 -10 -11 -11 -11 -11 -11 -12 -13 -13 -14 -15 -15 -15 -15 -15 -15 -15
-6 -5 -4 -7 -4 -5 -6 -7 -7 -6 -7 -7 -8 -8 -8 -9 -10 -11 -11 -13 -13 -13 -13 -12 -12 -12 -12 -12 -12 -11 -11 -10 -10 -10 -10 -10 -10 -10 -11 -12 -12 -12 -13 -13 -14 -14 -15 -15 -15 -14 -14 -14 -14 -14
-7 -8 -7 -4 -5 -6 -5 -4 -4 -4 -5 -7 -7 -9 -8 -9 -10 -11 -12 -12 -13 -13 -13 -13 -12 -12 -12 -12 -13 -12 -12 -11 -10 -11 -11 -11 -12 -12 -12 -12 -13 -13 -14 -14 -15 -15 -15 -14 -14 -14 -14 -14 -15 -22
-10 -9 -6 -6 -6 -6 -7 -7 -7 -6 -5 -6 -7 -8 -8 -9 -9 -11 -12 -12 -12 -13 -13 -13 -12 -11 -11 -12 -12 -13 -12 -12 -12 -12 -12 -13 -13 -13 -13 -14 -14 -14 -14 -14 -14 -14 -15 -14 -15 -16 -21 -22 -23 -24
-10 -11 -8 -8 -8 -8 -7 -7 -7 -9 -7 -10 -10 -9 -9 -8 -10 -11 -12 -13 -13 -13 -13 -13 -12 -13 -13 -12 -13 -14 -14 -14 -13 -13 -13 -13 -14 -14 -14 -14 -14 -14 -14 -14 -14 -14 -15 -15 -15 -16 -16 -17 -18 -20
-10 -12 -11 -10 -10 -9 -9 -8 -9 -8 -10 -10 -10 -11 -10 -11 -12 -12 -14 -14 -13 -14 -14 -14 -13 -13 -14 -15 -15 -15 -14 -14 -14 -14 -14 -13 -13 -14 -14 -14 -15 -14 -14 -14 -14 -15 -15 -15 -16 -16 -18 -19 -20 -23
-11 -11 -13 -14 -12 -11 -11 -12 -12 -12 -11 -10 -11 -12 -12 -12 -13 -13 -14 -14 -14 -15 -15 -15 -15 -15 -15 -15 -15 -15 -14 -14 -14 -14 -14 -14 -14 -14 -14 -15 -15 -15 -15 -17 -17 -18 -20 -21 -23 -25 -26 -27 -27 -27
-15 -14 -12 -13 -14 -14 -13 -13 -13 -13 -13 -14 -14 -13 -13 -13 -14 -14 -14 -15 -15 -14 -15 -15 -15 -15 -15 -15 -15 -15 -15 -15 -15 -15 -14 -15 -15 -15 -15 -14 -15 -15 -17 -17 -18 -19 -21 -23 -25 -25 -25 -25 -26 -26
-13 -15 -15 -14 -15 -15 -14 -14 -15 -16 -15 -12 -13 -15 -16 -15 -15 -15 -15 -15 -15 -15 -15 -15 -15 -15 -16 -15 -15 -15 -14 -14 -14 -15 -15 -16 -16 -16 -16 -16 -16 -18 -21 -25 -25 -24 -24 -24 -25 -27 -28 -28 -27 -27
-13 -14 -15 -16 -15 -15 -14 -13 -14 -15 -15 -16 -16 -16 -16 -16 -17 -16 -16 -16 -16 -16 -17 -17 -16 -16 -16 -16 -16 -16 -15 -15 -15 -16 -17 -17 -17 -17 -17 -18 -17 -17 -20 -24 -26 -26 -27 -27 -28 -28 -28 -27 -26 -27
-13 -14 -15 -16 -15 -14 -14 -14 -14 -14 -14 -14 -15 -15 -16 -16 -17 -18 -17 -17 -17 -16 -17 -18 -18 -18 -17 -17 -17 -18 -17 -17 -17 -17 -17 -17 -17 -18 -19 -19 -18 -18 -18 -18 -19 -19 -21 -19 -21 -24 -22 -20 -22 -22
-13 -14 -15 -15 -15 -14 -13 -12 -13 -13 -13 -14 -14 -14 -14 -13 -15 -17 -18 -17 -17 -18 -19 -19 -19 -19 -20 -21 -23 -25 -26 -25 -26 -25 -25 -25 -25 -24 -24 -24 -23 -23 -23 -23 -23 -23 -21 -19 -19 -19 -21 -22 -24 -22
-13 -14 -14 -14 -14 -14 -14 -11 -14 -13 -13 -14 -15 -14 -15 -14 -16 -17 -19 -18 -19 -19 -19 -20 -21 -25 -26 -26 -23 -24 -26 -27 -28 -28 -28 -28 -27 -27 -26 -26 -25 -24 -21 -19 -21 -23 -23 -22 -21 -22 -23 -23 -25 -26

GFSWCAN_850_dewp_105.txt.gz
Dewpoint
-5 -5 -5 -6 -7 -7 -7 -6 -7 -5 -6 -5 -5 -6 -5 -5 -4 -4 -6 -4 -2 -2 -4 -5 -6 -4 -4 -3 -1 -0 -1 0 1 0 -1 -0 0 -1 -0 -2 2 3 0 1 1 1 1 -2 -2 0 3 1 1 2
-6 -7 -6 -5 -5 -5 -5 -5 -6 -6 -7 -7 -7 -6 -6 -6 -5 -4 -4 -5 -4 -2 -3 -4 -3 -3 -3 -4 -4 -2 -0 -0 -0 1 2 2 1 1 2 3 2 4 1 2 -0 -0 2 2 2 2 0 0 -0 -1
-6 -5 -5 -6 -7 -8 -8 -6 -7 -8 -7 -7 -6 -4 -5 -4 -6 -4 -4 -5 -3 -2 -3 -5 -6 -9 -7 -7 -5 -3 -2 -3 -2 -1 -1 1 2 2 2 3 2 3 2 4 3 2 2 1 0 -1 -2 -3 -3 -2
-7 -6 -6 -7 -6 -6 -8 -8 -8 -7 -7 -7 -4 -3 -3 -4 -4 -4 -3 -5 -4 -2 -2 -4 -6 -6 -6 -5 -5 -4 -3 -4 -3 -2 -2 -0 1 -1 0 -0 0 -0 2 3 4 3 2 2 0 -2 -2 -2 -3 0
-6 -6 -8 -9 -7 -5 -5 -6 -6 -6 -6 -4 -3 -3 -3 -3 -3 -4 -4 -4 -4 -3 -2 -2 -4 -7 -5 -5 -3 -6 -4 -4 -3 -0 0 1 -0 -1 1 0 1 -1 1 2 4 2 3 1 -3 -3 -2 -2 1 1
-7 -6 -6 -5 -5 -4 -4 -4 -4 -3 -3 -3 -2 -3 -2 -3 -3 -3 -2 -4 -4 -3 -2 -2 -5 -5 -3 -2 -5 -4 -3 -3 -3 0 0 -0 -2 -1 1 1 -5 -4 -4 -4 -2 -3 -3 -4 -2 -1 -1 0 1 0
-7 -6 -4 -3 -3 -3 -3 -2 -2 -1 -1 -2 -2 -2 -2 -2 -3 -2 -2 -3 -6 -4 -2 -2 -2 -7 -6 -8 -2 -1 -2 -1 -2 -1 0 -0 -2 -2 1 0 -4 -4 -4 -5 -6 -6 -2 -2 -1 -0 -1 -0 -0 -1
-4 -3 -2 -2 -2 -1 -1 -1 -1 -0 -1 -1 -2 -2 -2 -2 -2 -3 -2 -1 -2 -2 -2 -1 -2 -2 -4 -2 -0 -0 0 -0 0 0 0 0 -0 -1 1 -1 -2 -4 -5 -6 -6 -2 -1 -1 -1 1 1 1 0 0
-3 -2 -1 -1 -1 -1 -1 -1 -2 -2 -0 -1 -1 -2 -2 -2 -2 -2 -4 -1 -1 -2 -2 -1 -1 -2 -3 -2 -1 -0 -1 1 1 0 0 -0 -1 0 -1 -2 -2 -1 -1 -1 -3 -1 -1 -0 -1 0 2 1 1 -0
-1 -1 -1 -1 -1 -0 -2 -1 -3 -0 -0 -1 -2 -2 -2 -2 -2 -2 -2 -2 -2 -1 -1 -1 -2 -3 -3 -1 0 -0 0 -0 -1 -1 -1 -1 -1 -1 -1 -2 -2 -1 -1 -1 -1 -1 -1 -1 -1 -1 -0 1 1 0
-1 -2 -2 -2 -2 -1 -1 -1 -1 -1 -1 -2 -2 -2 -2 -1 -2 -1 -2 -2 -2 -1 -1 -1 -2 -1 -3 -1 -0 -1 -1 -1 -1 -1 -1 0 1 -1 -3 -3 -3 -3 -2 -2 -2 -2 -2 -2 -1 -1 -0 -0 -1 -2
-1 -1 -1 -1 -1 -1 -1 -1 -0 -1 -1 -2 -2 -1 -1 -2 -1 -1 -1 -1 -1 -2 -1 -1 -1 -3 -2 -2 -1 -1 -2 -1 -1 -1 1 1 -2 -4 -4 -4 -4 -4 -5 -4 -4 -4 -3 -2 -2 -2 -1 -1 -2 -3
-1 -1 -1 -0 -1 -1 -1 -1 -1 -2 -1 -1 -1 -1 -1 -1 -1 -1 -1 -1 -2 -1 -2 -1 -0 -1 -1 -2 -0 -1 -1 -3 -2 -2 -0 -2 -4 -5 -5 -5 -5 -5 -6 -6 -7 -6 -5 -4 -3 -2 -2 -3 -3 -3
-1 -2 -1 -0 -1 -1 -1 -1 -1 -1 -1 -1 -1 -0 -0 -1 -2 -2 -1 -1 0 -1 -2 -0 0 -1 -1 -2 -2 -2 -3 -1 0 -0 -2 -4 -5 -6 -6 -6 -7 -7 -7 -8 -8 -8 -7 -6 -6 -6 -5 -6 -6 -6
-1 -1 -1 -1 -1 -1 -1 -1 -1 -1 -2 -3 -3 -1 -2 -3 -2 -1 -1 -1 -0 -0 -1 -1 -1 -2 -2 -2 -2 -2 -1 -1 -1 -4 -4 -5 -6 -7 -7 -7 -8 -8 -8 -9 -9 -9 -9 -9 -8 -8 -8 -8 -8 -9
-1 -2 -2 -1 -1 -1 -1 -1 -1 -5 -7 -6 -5 -3 -3 -3 -3 -2 -2 -3 -2 -1 -1 -1 -1 -1 -3 -3 -2 -2 -2 -3 -5 -5 -6 -7 -7 -8 -8 -8 -9 -9 -10 -10 -11 -11 -11 -10 -10 -10 -10 -11 -11 -11
-2 -2 -1 -1 -1 -1 -1 -1 -4 -6 -6 -6 -5 -6 -4 -4 -4 -4 -5 -4 -3 -1 -1 -1 -2 -4 -2 -2 -2 -3 -5 -6 -5 -7 -8 -9 -9 -9 -8 -9 -9 -9 -10 -11 -12 -12 -12 -12 -12 -12 -13 -13 -13 -13
-1 -1 -1 -2 -4 -5 -5 -6 -7 -8 -5 -5 -6 -6 -7 -6 -6 -6 -6 -5 -3 -3 -2 -2 -3 -3 -6 -4 -7 -6 -6 -6 -8 -8 -9 -10 -9 -10 -10 -10 -10 -11 -11 -12 -12 -13 -13 -13 -13 -14 -14 -14 -14 -14
-2 -3 -5 -4 -3 -6 -6 -7 -8 -6 -6 -6 -7 -8 -9 -8 -8 -8 -7 -6 -5 -5 -6 -7 -9 -8 -9 -9 -9 -9 -8 -9 -8 -7 -8 -10 -11 -10 -10 -10 -10 -11 -11 -11 -11 -12 -13 -14 -14 -14 -15 -15 -15 -15
-2 -2 -2 -2 -7 -6 -6 -7 -7 -7 -6 -7 -8 -8 -8 -8 -9 -10 -9 -9 -8 -10 -10 -10 -11 -11 -10 -11 -10 -10 -9 -10 -9 -8 -8 -9 -10 -11 -11 -11 -12 -11 -12 -12 -13 -13 -14 -14 -14 -15 -15 -15 -15 -15
-3 -3 -5 -7 -8 -6 -5 -7 -7 -7 -6 -7 -9 -9 -9 -11 -10 -11 -12 -11 -13 -12 -12 -12 -12 -12 -11 -11 -11 -11 -11 -10 -10 -9 -9 -9 -10 -11 -11 -11 -11 -11 -12 -12 -13 -13 -14 -15 -15 -15 -15 -15 -15 -15
-2 -3 -6 -7 -6 -6 -7 -7 -7 -7 -7 -6 -6 -8 -8 -9 -10 -11 -13 -13 -13 -13 -12 -12 -12 -12 -11 -12 -12 -12 -11 -10 -10 -11 -11 -10 -10 -11 -11 -12 -12 -12 -13 -13 -14 -15 -15 -15 -15 -15 -15 -15 -15 -15
-7 -8 -6 -6 -6 -6 -5 -4 -4 -5 -6 -6 -8 -8 -8 -9 -10 -12 -12 -13 -13 -13 -13 -12 -12 -12 -12 -13 -12 -12 -11 -12 -12 -11 -12 -12 -12 -12 -12 -13 -13 -13 -14 -14 -15 -15 -15 -15 -15 -14 -15 -15 -15 -15
-9 -9 -7 -6 -6 -5 -7 -6 -7 -6 -6 -7 -7 -7 -8 -9 -10 -11 -12 -12 -13 -13 -13 -13 -12 -11 -12 -13 -14 -13 -13 -12 -13 -13 -13 -13 -14 -13 -13 -14 -14 -14 -14 -15 -15 -15 -15 -15 -14 -15 -15 -15 -15 -16
-11 -11 -9 -10 -9 -8 -7 -6 -6 -8 -6 -7 -8 -8 -8 -8 -9 -10 -12 -12 -14 -14 -14 -13 -14 -14 -14 -14 -14 -14 -14 -13 -13 -13 -14 -14 -14 -14 -14 -14 -14 -14 -14 -14 -15 -15 -15 -15 -16 -18 -20 -21 -22 -23
-11 -13 -12 -10 -9 -9 -8 -8 -8 -9 -10 -11 -9 -10 -11 -11 -13 -12 -13 -14 -15 -15 -15 -14 -14 -14 -15 -15 -15 -14 -14 -14 -13 -14 -13 -13 -14 -14 -14 -14 -14 -14 -14 -14 -15 -15 -15 -15 -16 -17 -18 -18 -20 -23
-12 -12 -12 -13 -10 -11 -11 -12 -13 -12 -11 -10 -11 -12 -12 -13 -13 -13 -15 -15 -15 -15 -15 -15 -15 -15 -15 -15 -15 -15 -14 -14 -14 -14 -14 -14 -14 -14 -14 -15 -15 -15 -15 -16 -16 -16 -17 -18 -18 -19 -21 -22 -22 -24
-14 -13 -13 -13 -13 -13 -13 -13 -14 -13 -13 -13 -13 -14 -15 -14 -14 -14 -15 -15 -14 -14 -15 -15 -15 -15 -15 -15 -15 -15 -15 -15 -15 -15 -15 -15 -15 -15 -15 -15 -15 -15 -15 -15 -17 -22 -21 -20 -24 -25 -25 -25 -25 -25
-14 -15 -15 -15 -15 -14 -13 -14 -13 -14 -14 -13 -14 -15 -15 -15 -15 -15 -15 -15 -16 -16 -16 -16 -15 -15 -16 -15 -15 -14 -14 -14 -15 -15 -16 -17 -16 -16 -17 -16 -16 -16 -16 -16 -17 -18 -21 -23 -24 -24 -24 -25 -25 -25
-13 -14 -16 -15 -16 -14 -13 -15 -15 -16 -16 -16 -16 -16 -16 -16 -16 -16 -16 -16 -16 -17 -17 -16 -16 -16 -17 -17 -16 -15 -15 -15 -16 -16 -17 -17 -17 -17 -17 -17 -17 -19 -22 -23 -24 -25 -26 -25 -27 -27 -27 -26 -25 -25
-14 -15 -15 -14 -14 -13 -15 -15 -14 -15 -16 -17 -18 -18 -17 -17 -17 -17 -17 -17 -17 -17 -17 -17 -17 -17 -17 -17 -17 -17 -17 -17 -17 -17 -17 -17 -17 -17 -17 -17 -17 -18 -19 -19 -21 -21 -21 -22 -23 -24 -23 -22 -22 -24
-14 -15 -16 -16 -13 -13 -13 -12 -13 -14 -13 -14 -15 -15 -15 -14 -16 -17 -17 -17 -18 -18 -18 -20 -22 -23 -25 -25 -26 -27 -27 -26 -25 -24 -24 -24 -24 -24 -24 -23 -23 -22 -22 -21 -20 -19 -18 -19 -19 -19 -21 -22 -24 -25
-14 -15 -15 -15 -13 -13 -13 -12 -14 -13 -13 -14 -14 -14 -16 -16 -17 -18 -18 -18 -18 -19 -22 -25 -26 -26 -26 -26 -26 -26 -26 -27 -28 -28 -28 -28 -27 -26 -25 -25 -24 -24 -23 -23 -23 -23 -22 -21 -21 -22 -23 -24 -25 -26

GFSWCAN_850_dewp_108.txt.gz
Dewpoint
-5 -5 -5 -7 -8 -7 -6 -6 -6 -6 -6 -6 -5 -4 -4 -4 -5 -4 -5 -5 -4 -3 -4 -6 -6 -5 -4 -3 -2 -2 -3 -1 -1 -2 -1 -1 -0 -0 1 -1 2 3 2 1 0 -0 1 0 2 1 2 1 2 1
-6 -6 -6 -6 -6 -7 -7 -7 -8 -8 -8 -7 -6 -6 -5 -6 -6 -3 -3 -4 -5 -3 -4 -3 -4 -4 -3 -3 -3 -3 -2 -0 -1 -1 -1 -1 1 1 2 2 2 3 3 1 -1 -1 -1 2 2 2 1 -1 -1 -2
-6 -6 -6 -7 -7 -6 -5 -5 -6 -6 -4 -5 -7 -7 -7 -7 -6 -5 -4 -4 -4 -4 -3 -4 -6 -8 -7 -6 -4 -3 -2 -3 -1 -2 -1 -2 -0 1 1 1 1 2 1 3 2 2 2 3 1 1 -0 -2 -3 -2
-6 -6 -6 -6 -7 -6 -6 -8 -8 -8 -7 -7 -8 -7 -7 -6 -4 -4 -4 -4 -3 -4 -2 -4 -7 -6 -7 -6 -6 -5 -5 -4 -4 -3 -2 -2 -1 -2 0 -1 0 2 2 3 3 2 2 1 1 -1 -2 -2 -2 1
-7 -6 -6 -8 -7 -6 -6 -6 -8 -6 -7 -8 -7 -6 -6 -3 -3 -3 -3 -4 -4 -5 -3 -3 -5 -9 -9 -5 -5 -4 -5 -3 -2 -1 -0 -1 -0 -0 -1 1 1 1 1 1 2 2 2 1 -1 -1 -1 -0 0 1
-7 -7 -7 -6 -6 -7 -8 -9 -8 -5 -5 -5 -5 -5 -4 -3 -3 -3 -3 -3 -4 -3 -3 -3 -5 -6 -9 -4 -2 -4 -3 -4 -4 -1 -1 0 -2 -1 1 2 -2 -4 -6 -5 -3 -4 -3 -2 0 1 1 2 1 -1
-5 -6 -6 -7 -6 -6 -6 -6 -5 -4 -4 -4 -3 -3 -3 -2 -2 -2 -3 -5 -6 -4 -2 -3 -3 -6 -7 -7 -8 -3 -3 -2 -2 -2 -0 -0 -2 -1 -0 0 -4 -4 -3 -3 -2 -3 -0 1 1 1 1 -0 -1 -0
-7 -8 -9 -8 -7 -6 -4 -3 -3 -3 -3 -3 -3 -3 -2 -2 -2 -3 -2 -2 -3 -3 -3 -2 -3 -3 -5 -4 -1 -2 0 -0 -0 -0 0 0 -0 -0 1 -1 -1 -1 -1 -1 -1 0 -0 0 2 2 2 1 0 -0
-9 -9 -7 -5 -4 -3 -2 -2 -2 -2 -1 -2 -2 -2 -2 -2 -2 -3 -2 -2 -3 -3 -3 -3 -2 -3 -2 -2 -1 1 0 0 -0 -0 1 0 -0 1 0 -1 -2 -2 -2 -2 -1 -1 -1 -1 -1 1 1 1 1 -0
-8 -6 -3 -3 -2 -2 -1 -1 -1 -1 -1 -1 -2 -2 -2 -2 -2 -4 -2 -3 -2 -2 -1 -2 -4 -2 -3 -1 0 -0 0 -1 1 -0 -1 0 1 -1 -1 -2 -3 -4 -3 -2 -2 -2 -2 -2 -1 -1 -1 0 0 -1
-3 -3 -2 -1 -1 -1 -1 -1 -2 -1 -1 -2 -2 -2 -2 -2 -2 -2 -2 -2 -2 -2 -2 -2 -3 -3 -3 -2 -2 0 -2 -2 -1 -2 -0 0 1 -2 -3 -3 -4 -4 -5 -4 -4 -4 -3 -3 -2 -2 -1 -1 -1 -2
-1 -1 -1 -1 -1 -1 -1 -1 -1 -1 -2 -2 -2 -2 -1 -2 -1 -2 -2 -2 -2 -2 -2 -2 -1 -2 -2 -1 -2 -2 -3 -3 -2 -1 1 1 -3 -4 -5 -5 -5 -6 -6 -6 -7 -6 -5 -4 -4 -3 -3 -2 -3 -3
-1 -2 -2 -1 -1 -1 -1 -1 -1 -1 -2 -2 -1 -1 -1 -2 -1 -2 -1 -3 -2 -3 -2 -0 -2 -2 -1 -1 -1 -2 -3 -3 -3 -5 -1 -3 -5 -6 -6 -6 -7 -7 -7 -7 -7 -7 -7 -6 -5 -4 -4 -4 -4 -4
-2 -2 -2 -1 -1 -1 -1 -1 -1 -1 -1 -1 -1 -1 -2 -3 -2 -3 -3 -3 -3 -0 -2 -2 -0 -1 -1 -3 -3 -5 -4 -1 -0 -3 -3 -5 -6 -7 -7 -7 -8 -8 -9 -9 -9 -9 -8 -8 -7 -6 -6 -6 -6 -7
-2 -2 -2 -1 -1 -1 -1 -1 -1 -1 -2 -2 -3 -4 -5 -3 -2 -1 -1 -1 -1 -0 -2 -1 -1 -2 -1 -3 -3 -3 -2 -1 -2 -5 -7 -6 -7 -8 -8 -8 -9 -9 -10 -11 -11 -10 -10 -9 -9 -8 -9 -9 -8 -9
-1 -0 -1 -1 -1 -1 -1 -1 -2 -3 -5 -6 -5 -4 -2 -3 -3 -3 -2 -2 -1 -1 -2 -3 -2 -3 -4 -5 -2 -3 -1 -3 -7 -8 -7 -9 -8 -9 -8 -9 -9 -9 -10 -11 -12 -11 -11 -11 -10 -10 -11 -11 -11 -11
-1 -2 -1 -1 -1 -1 -1 -1 -3 -5 -6 -6 -6 -6 -4 -5 -5 -5 -5 -4 -2 -1 -2 -2 -2 -5 -4 -2 -3 -5 -8 -8 -7 -7 -9 -10 -10 -10 -10 -9 -10 -10 -11 -12 -12 -13 -12 -12 -12 -12 -12 -12 -12 -12
-3 -2 -2 -2 -2 -1 -2 -4 -6 -7 -6 -7 -7 -7 -8 -7 -7 -7 -6 -4 -3 -2 -3 -3 -4 -7 -9 -7 -10 -10 -9 -7 -7 -7 -8 -10 -11 -11 -11 -12 -12 -12 -12 -13 -13 -13 -13 -13 -13 -13 -13 -14 -14 -14
-2 -2 -1 -1 -2 -2 -5 -6 -9 -6 -6 -8 -8 -9 -9 -9 -8 -8 -6 -6 -5 -5 -7 -11 -12 -11 -12 -10 -10 -10 -9 -9 -9 -8 -8 -9 -11 -11 -10 -11 -11 -11 -11 -12 -12 -12 -14 -14 -14 -14 -14 -14 -14 -15
-2 -4 -4 -3 -7 -7 -7 -8 -8 -7 -7 -8 -9 -9 -9 -9 -10 -9 -8 -8 -8 -11 -12 -13 -14 -12 -11 -11 -11 -11 -10 -10 -10 -9 -9 -9 -11 -11 -11 -11 -12 -12 -12 -12 -13 -13 -14 -14 -15 -15 -15 -15 -15 -15
-2 -3 -3 -7 -7 -7 -8 -8 -7 -8 -8 -10 -10 -10 -11 -11 -12 -13 -13 -12 -13 -12 -13 -12 -12 -11 -11 -11 -12 -11 -11 -10 -9 -10 -10 -10 -10 -10 -11 -11 -11 -12 -13 -13 -14 -14 -14 -15 -15 -15 -15 -15 -15 -15
-3 -4 -6 -8 -7 -8 -8 -8 -8 -8 -7 -8 -7 -9 -10 -10 -11 -12 -14 -14 -13 -13 -13 -12 -12 -12 -12 -12 -12 -11 -11 -11 -11 -11 -11 -10 -11 -11 -12 -12 -12 -12 -13 -13 -14 -14 -15 -15 -15 -15 -15 -15 -15 -15
-5 -7 -6 -7 -6 -7 -7 -6 -5 -6 -8 -8 -8 -9 -10 -10 -11 -13 -12 -13 -13 -13 -12 -12 -11 -12 -12 -13 -12 -12 -12 -12 -12 -12 -12 -12 -12 -12 -13 -13 -13 -13 -14 -14 -15 -15 -15 -15 -15 -15 -15 -16 -16 -16
-8 -8 -7 -6 -7 -7 -7 -5 -6 -6 -6 -8 -9 -9 -10 -10 -12 -13 -12 -13 -14 -13 -13 -13 -12 -13 -13 -13 -14 -13 -13 -13 -13 -13 -13 -13 -13 -14 -14 -14 -14 -14 -14 -14 -15 -15 -15 -15 -15 -15 -15 -15 -15 -15
-10 -12 -10 -11 -9 -9 -9 -8 -8 -8 -8 -8 -9 -9 -8 -9 -11 -12 -13 -14 -15 -14 -14 -14 -14 -14 -14 -14 -14 -14 -14 -13 -13 -14 -14 -14 -14 -14 -14 -14 -14 -14 -14 -14 -14 -15 -15 -15 -15 -15 -15 -15 -15 -16
-12 -12 -12 -12 -11 -10 -9 -9 -10 -11 -12 -12 -11 -10 -13 -14 -15 -14 -14 -14 -15 -15 -15 -14 -15 -15 -15 -15 -14 -14 -14 -14 -13 -14 -14 -14 -14 -14 -14 -14 -14 -14 -14 -14 -14 -15 -15 -16 -18 -19 -20 -21 -22 -23
-14 -15 -12 -13 -11 -11 -13 -13 -13 -14 -14 -13 -14 -15 -15 -16 -15 -14 -14 -14 -15 -15 -15 -15 -15 -15 -15 -15 -15 -15 -15 -14 -14 -14 -14 -14 -14 -14 -14 -14 -15 -15 -15 -15 -15 -15 -16 -16 -17 -18 -19 -20 -21 -22
-12 -14 -16 -14 -15 -15 -15 -15 -16 -15 -15 -13 -15 -17 -18 -17 -15 -15 -15 -14 -14 -14 -15 -15 -15 -15 -15 -15 -15 -15 -15 -15 -15 -15 -15 -15 -15 -15 -15 -15 -15 -15 -15 -15 -16 -17 -18 -18 -18 -17 -17 -22 -24 -24
-15 -15 -16 -18 -15 -14 -14 -16 -15 -14 -14 -13 -19 -19 -16 -16 -15 -15 -15 -15 -15 -15 -15 -16 -16 -16 -16 -15 -15 -15 -15 -15 -16 -16 -16 -17 -17 -16 -16 -16 -16 -16 -16 -16 -16 -16 -16 -18 -22 -23 -23 -23 -24 -24
-14 -17 -16 -15 -18 -15 -15 -16 -16 -16 -16 -17 -16 -16 -17 -16 -16 -16 -16 -17 -17 -16 -16 -16 -16 -16 -16 -16 -16 -15 -15 -16 -16 -16 -17 -17 -17 -17 -17 -17 -17 -18 -19 -19 -19 -19 -20 -19 -21 -22 -24 -24 -24 -24
-16 -17 -15 -14 -14 -14 -15 -17 -18 -18 -17 -17 -18 -18 -17 -17 -17 -17 -17 -17 -17 -17 -17 -17 -16 -16 -17 -17 -16 -16 -16 -17 -17 -17 -17 -17 -17 -17 -17 -17 -17 -17 -18 -21 -23 -23 -22 -23 -24 -24 -23 -22 -22 -22
-16 -16 -15 -17 -14 -15 -14 -14 -15 -15 -16 -16 -16 -16 -16 -16 -18 -18 -18 -18 -18 -18 -20 -23 -23 -24 -26 -27 -27 -26 -26 -24 -23 -22 -23 -23 -22 -22 -22 -22 -21 -21 -20 -20 -20 -20 -20 -20 -20 -20 -20 -21 -22 -22
-16 -16 -15 -14 -14 -13 -13 -12 -13 -13 -14 -14 -14 -15 -16 -17 -18 -18 -19 -18 -18 -22 -25 -26 -27 -27 -27 -26 -26 -26 -27 -27 -28 -28 -28 -28 -27 -26 -25 -24 -24 -23 -23 -22 -22 -21 -21 -21 -20 -21 -22 -23 -24 -25

GFSWCAN_850_dewp_111.txt.gz
Dewpoint
-4 -4 -6 -6 -5 -5 -5 -6 -6 -6 -7 -6 -6 -5 -4 -4 -3 -3 -4 -4 -4 -4 -4 -5 -5 -5 -4 -4 -3 -4 -5 -3 -2 -0 -2 -1 0 0 2 -1 2 2 2 2 1 -1 -1 -1 1 2 2 1 2 2
-7 -6 -6 -6 -6 -6 -8 -8 -7 -6 -6 -7 -7 -7 -5 -3 -3 -3 -3 -4 -4 -3 -5 -6 -7 -5 -3 -4 -3 -3 -4 -1 -2 -2 -1 -1 -0 0 0 2 2 2 2 2 -1 -2 -1 2 3 1 2 2 -1 -1
-5 -6 -7 -6 -6 -7 -6 -5 -7 -8 -8 -8 -8 -7 -6 -5 -4 -4 -4 -3 -3 -3 -5 -6 -9 -9 -6 -8 -7 -3 -3 -4 -2 -2 -2 -2 -1 -1 0 1 1 1 0 3 2 2 2 2 1 2 2 1 0 -0
-4 -5 -7 -7 -6 -6 -6 -7 -6 -6 -6 -6 -6 -5 -7 -7 -6 -5 -4 -3 -4 -3 -3 -5 -7 -7 -8 -6 -6 -6 -5 -4 -3 -3 -2 -2 -2 -3 0 -1 -0 1 2 2 3 2 1 2 -0 -1 -1 -0 1 0
-7 -6 -8 -6 -7 -6 -7 -7 -6 -6 -8 -8 -9 -7 -7 -7 -5 -5 -4 -4 -3 -3 -4 -4 -7 -11 -10 -8 -8 -7 -5 -4 -4 -2 -1 -1 -2 -0 -1 -0 2 1 -1 1 2 -0 1 1 1 1 2 2 2 1
-6 -8 -7 -7 -6 -6 -7 -7 -6 -5 -6 -8 -7 -7 -8 -6 -4 -3 -3 -4 -3 -3 -3 -3 -6 -9 -10 -7 -6 -3 -5 -3 -3 -2 -2 -1 -1 -1 1 1 -2 -1 -2 -2 -2 -2 -0 2 2 2 1 -0 -1 -1
-7 -7 -8 -7 -7 -8 -9 -8 -7 -8 -9 -8 -5 -5 -5 -4 -3 -3 -3 -5 -4 -3 -3 -3 -4 -6 -6 -7 -6 -4 -3 -3 -4 -2 -1 -1 -2 -2 -0 -1 -1 -2 -1 -0 0 0 1 2 1 1 2 2 -0 -0
-7 -7 -7 -7 -6 -5 -6 -7 -7 -6 -6 -5 -5 -4 -4 -3 -3 -3 -4 -3 -3 -3 -4 -3 -4 -3 -6 -4 -2 -1 -1 -1 -1 -1 -1 -0 -0 -0 1 -0 -2 -2 -2 -1 -1 -0 -0 -0 1 1 1 -0 -0 -0
-8 -6 -5 -6 -7 -7 -9 -8 -7 -5 -4 -3 -3 -3 -3 -3 -3 -2 -4 -3 -3 -4 -3 -4 -3 -3 -2 -2 -1 0 0 -0 -0 -1 -0 0 0 1 -1 -2 -3 -4 -3 -3 -2 -2 -2 -2 -2 -1 -0 0 -0 -1
-7 -7 -7 -8 -8 -9 -6 -6 -4 -3 -2 -2 -3 -3 -3 -2 -2 -3 -2 -2 -2 -3 -2 -3 -4 -4 -2 -1 0 -0 -0 -1 0 0 -0 1 0 -2 -3 -4 -4 -5 -5 -5 -4 -4 -4 -4 -3 -2 -2 -1 -1 -2
-8 -8 -9 -9 -8 -6 -4 -3 -3 -2 -2 -2 -3 -2 -2 -2 -3 -3 -3 -3 -3 -3 -3 -3 -3 -3 -5 -2 -1 -0 -2 -1 -1 -2 0 0 -0 -3 -4 -4 -5 -6 -6 -6 -6 -6 -6 -6 -5 -4 -3 -3 -3 -3
-9 -7 -5 -4 -4 -3 -2 -2 -2 -2 -2 -2 -3 -2 -2 -2 -2 -3 -3 -3 -3 -3 -3 -3 -3 -3 -3 -1 -2 -1 -1 -4 -3 -1 1 0 -4 -5 -6 -6 -6 -7 -8 -8 -8 -8 -7 -6 -6 -6 -5 -4 -4 -4
-4 -3 -3 -2 -2 -2 -1 -1 -1 -1 -2 -2 -2 -1 -2 -2 -2 -3 -3 -2 -2 -3 -3 -1 -1 -3 -1 -1 -2 -1 -1 -3 -4 -2 -1 -4 -5 -6 -7 -7 -8 -9 -9 -10 -10 -9 -8 -7 -7 -6 -6 -5 -5 -5
-2 -1 -1 -1 -1 -1 -1 -1 -1 -2 -1 -1 -1 -1 -2 -3 -3 -4 -3 -3 -4 -3 -2 -1 -1 -1 -0 -3 -3 -2 -4 -2 -1 -2 -3 -6 -6 -7 -8 -8 -9 -9 -10 -11 -11 -10 -10 -9 -8 -8 -7 -7 -7 -7
-2 -2 -2 -1 -1 -1 -1 -1 -2 -1 -1 -2 -3 -2 -3 -4 -2 -2 -1 -2 -2 -1 -1 -2 -1 -1 -2 -3 -2 -4 -2 -2 -3 -6 -9 -7 -7 -8 -9 -9 -9 -10 -10 -12 -12 -11 -11 -10 -10 -10 -9 -9 -9 -9
-2 -2 -2 -1 -1 -1 -1 -2 -2 -1 -4 -5 -6 -4 -3 -3 -3 -3 -2 -2 -1 -1 -2 -2 -4 -5 -2 -5 -2 -3 -2 -4 -10 -10 -7 -9 -9 -10 -10 -9 -10 -10 -11 -12 -13 -13 -12 -12 -11 -11 -11 -11 -11 -11
-1 -1 -2 -1 -1 -1 -2 -2 -2 -4 -5 -7 -7 -6 -5 -6 -6 -6 -5 -4 -2 -1 -2 -3 -3 -6 -5 -2 -5 -7 -10 -10 -8 -8 -9 -10 -11 -11 -11 -12 -12 -12 -12 -13 -13 -14 -14 -13 -13 -12 -12 -12 -12 -12
-2 -1 -1 -1 -1 -2 -2 -3 -5 -6 -6 -7 -8 -8 -9 -8 -8 -8 -7 -4 -3 -2 -3 -4 -7 -6 -9 -8 -11 -12 -10 -9 -9 -9 -8 -8 -11 -11 -11 -11 -11 -12 -12 -12 -12 -13 -14 -14 -13 -13 -13 -14 -14 -14
-1 -1 -1 -1 -2 -2 -5 -6 -8 -7 -7 -8 -8 -9 -9 -9 -9 -8 -7 -7 -5 -6 -9 -12 -13 -13 -14 -12 -11 -11 -10 -10 -10 -10 -9 -9 -10 -12 -12 -11 -11 -12 -11 -12 -12 -13 -14 -14 -14 -14 -14 -14 -14 -14
-2 -2 -2 -2 -2 -6 -6 -7 -8 -8 -8 -8 -9 -10 -10 -11 -10 -9 -8 -8 -8 -11 -13 -13 -14 -12 -12 -11 -11 -11 -11 -10 -10 -10 -10 -9 -10 -11 -11 -11 -11 -12 -13 -13 -13 -14 -14 -15 -15 -15 -15 -15 -15 -15
-2 -3 -1 -3 -7 -9 -8 -8 -8 -8 -10 -10 -10 -11 -11 -12 -12 -13 -13 -12 -14 -13 -13 -12 -12 -11 -12 -12 -12 -11 -10 -10 -10 -10 -10 -10 -10 -10 -11 -12 -11 -11 -12 -13 -13 -14 -14 -14 -15 -15 -15 -15 -15 -15
-3 -4 -6 -7 -8 -8 -8 -8 -9 -9 -8 -8 -8 -11 -11 -12 -12 -13 -15 -14 -13 -13 -13 -12 -12 -12 -12 -13 -12 -11 -11 -11 -11 -12 -12 -11 -11 -11 -12 -12 -12 -12 -13 -13 -14 -14 -15 -15 -15 -16 -16 -16 -16 -16
-4 -5 -5 -5 -6 -7 -8 -6 -6 -7 -10 -8 -9 -10 -11 -11 -12 -14 -13 -13 -14 -13 -13 -12 -12 -12 -13 -13 -12 -12 -13 -12 -12 -13 -13 -13 -12 -12 -13 -14 -13 -13 -13 -14 -15 -15 -15 -15 -15 -16 -16 -16 -16 -16
-4 -6 -7 -7 -7 -7 -5 -5 -6 -6 -7 -9 -10 -10 -11 -12 -14 -14 -14 -14 -14 -14 -13 -13 -13 -13 -14 -14 -14 -14 -14 -13 -13 -13 -14 -14 -14 -14 -14 -14 -14 -14 -15 -15 -15 -15 -15 -15 -15 -16 -16 -16 -16 -16
-8 -12 -10 -12 -9 -10 -10 -10 -10 -10 -9 -9 -11 -10 -10 -10 -13 -13 -13 -14 -15 -14 -14 -14 -14 -14 -14 -14 -14 -14 -14 -14 -13 -14 -14 -14 -14 -14 -14 -14 -15 -15 -14 -14 -14 -15 -15 -15 -15 -16 -16 -16 -16 -16
-11 -11 -12 -12 -11 -11 -10 -10 -10 -10 -11 -10 -10 -11 -15 -15 -15 -14 -14 -15 -15 -15 -14 -15 -15 -15 -15 -15 -14 -14 -14 -14 -13 -14 -14 -14 -14 -14 -14 -14 -15 -15 -15 -15 -14 -14 -15 -15 -16 -17 -17 -17 -17 -19
-14 -14 -13 -13 -11 -13 -14 -14 -14 -14 -14 -13 -13 -15 -17 -17 -17 -15 -14 -15 -15 -15 -15 -15 -15 -15 -15 -15 -15 -15 -14 -14 -14 -14 -15 -15 -15 -15 -15 -15 -15 -15 -15 -15 -15 -15 -15 -17 -18 -19 -19 -20 -21 -21
-13 -15 -15 -15 -15 -15 -16 -16 -17 -17 -15 -13 -17 -19 -20 -20 -17 -15 -15 -15 -16 -15 -16 -16 -16 -15 -15 -15 -15 -15 -15 -15 -15 -15 -15 -15 -15 -15 -16 -16 -16 -15 -15 -15 -15 -16 -16 -17 -17 -18 -18 -18 -18 -21
-15 -16 -17 -18 -15 -15 -16 -19 -17 -15 -15 -15 -21 -21 -16 -17 -16 -15 -15 -15 -15 -15 -15 -16 -16 -16 -16 -16 -15 -15 -15 -15 -16 -16 -16 -16 -16 -16 -16 -16 -16 -16 -16 -16 -16 -16 -16 -16 -17 -18 -19 -21 -23 -22
-15 -17 -16 -16 -18 -17 -16 -16 -16 -16 -16 -17 -17 -17 -17 -17 -16 -16 -16 -17 -16 -16 -16 -16 -16 -16 -16 -16 -16 -16 -15 -16 -16 -16 -17 -17 -17 -17 -17 -17 -16 -16 -17 -17 -17 -17 -16 -17 -17 -17 -19 -20 -21 -22
-16 -16 -15 -15 -16 -16 -17 -17 -17 -17 -17 -18 -18 -18 -18 -18 -18 -17 -18 -18 -18 -18 -17 -17 -17 -17 -17 -16 -16 -16 -16 -17 -17 -17 -17 -17 -17 -18 -17 -17 -17 -17 -17 -18 -19 -22 -24 -24 -23 -23 -23 -22 -22 -21
-17 -16 -16 -18 -15 -15 -14 -16 -17 -16 -17 -17 -17 -18 -17 -18 -18 -18 -18 -18 -18 -20 -21 -22 -23 -24 -26 -27 -27 -27 -25 -22 -22 -23 -24 -24 -24 -23 -23 -22 -22 -22 -21 -20 -19 -19 -20 -21 -21 -20 -20 -20 -21 -21
-16 -16 -16 -16 -15 -15 -14 -13 -13 -14 -14 -15 -15 -16 -16 -18 -18 -18 -18 -18 -19 -24 -27 -27 -27 -27 -27 -27 -26 -27 -27 -27 -28 -28 -28 -28 -27 -26 -26 -25 -24 -23 -22 -22 -22 -21 -20 -20 -20 -21 -21 -22 -23 -24

GFSWCAN_850_dewp_114.txt.gz
Dewpoint
-7 -7 -7 -3 -4 -6 -4 -5 -5 -5 -6 -7 -6 -7 -6 -5 -5 -5 -5 -4 -4 -4 -6 -7 -7 -5 -4 -4 -4 -5 -5 -4 -4 -2 -2 -1 -0 0 1 -2 1 2 2 1 1 0 -2 1 1 2 3 3 3 3
-6 -5 -6 -4 -5 -6 -6 -5 -5 -6 -6 -7 -6 -5 -6 -4 -4 -4 -4 -4 -4 -4 -5 -6 -6 -6 -7 -7 -3 -3 -4 -3 -3 -5 -4 -2 -1 -1 -0 0 1 1 1 1 1 -2 0 1 2 2 -0 2 2 0
-5 -5 -5 -4 -5 -7 -6 -6 -5 -7 -7 -6 -6 -6 -7 -6 -5 -3 -3 -4 -4 -3 -3 -3 -7 -9 -8 -8 -9 -4 -5 -4 -3 -2 -1 -1 -2 -2 -1 0 1 1 0 2 2 2 1 1 1 1 2 1 2 2
-6 -6 -5 -5 -7 -7 -6 -7 -8 -7 -6 -7 -7 -8 -8 -6 -6 -5 -3 -4 -3 -4 -4 -6 -8 -9 -9 -7 -6 -5 -6 -4 -3 -2 -3 -2 -2 -3 -1 -2 -0 1 1 1 2 2 1 2 2 2 2 2 2 2
-6 -6 -5 -5 -6 -7 -6 -8 -5 -6 -7 -6 -6 -6 -5 -5 -7 -4 -4 -5 -4 -4 -4 -4 -8 -11 -11 -11 -9 -6 -4 -4 -4 -3 -3 -2 -1 -2 -1 -1 1 -1 1 2 2 1 1 2 2 2 1 0 0 -0
-7 -6 -5 -5 -5 -8 -7 -7 -6 -7 -5 -5 -7 -9 -9 -8 -7 -4 -4 -5 -5 -4 -3 -4 -8 -10 -10 -10 -8 -6 -7 -4 -3 -3 -3 -3 -3 -1 0 1 -1 -2 -2 -1 -0 0 2 0 0 1 1 0 -1 0
-7 -6 -6 -6 -7 -8 -7 -5 -6 -6 -6 -6 -6 -7 -7 -7 -6 -4 -3 -3 -4 -4 -3 -5 -5 -7 -6 -6 -6 -5 -3 -3 -3 -2 -2 -2 -2 -1 -1 -1 -1 -2 -2 -1 -1 -1 -1 -1 0 0 -0 -1 -1 -2
-7 -7 -7 -7 -8 -8 -7 -5 -7 -7 -6 -7 -9 -7 -5 -6 -4 -4 -4 -3 -3 -3 -3 -4 -5 -4 -6 -4 -3 -3 -2 -2 -1 -2 -1 -1 -1 -1 0 -1 -3 -3 -4 -3 -4 -3 -3 -2 -2 -1 -1 -1 -1 -2
-7 -8 -7 -7 -8 -7 -7 -8 -8 -7 -7 -7 -8 -5 -4 -4 -4 -3 -5 -2 -3 -3 -4 -5 -4 -5 -3 -1 -2 -1 -1 -1 -1 -1 -0 -0 -0 1 -2 -3 -4 -5 -5 -5 -5 -4 -4 -4 -4 -3 -2 -2 -2 -3
-8 -8 -7 -7 -7 -7 -6 -5 -5 -6 -8 -7 -4 -4 -3 -3 -4 -5 -3 -3 -3 -3 -3 -3 -4 -4 -3 -0 -0 -0 -1 0 1 0 -0 0 -1 -3 -4 -4 -5 -6 -6 -6 -5 -5 -6 -6 -6 -5 -5 -4 -4 -3
-10 -9 -8 -6 -5 -5 -6 -7 -9 -9 -5 -4 -3 -3 -3 -3 -3 -3 -3 -3 -3 -3 -3 -3 -4 -4 -6 -3 -1 -1 -1 -1 -0 -1 0 1 -1 -4 -5 -6 -6 -7 -8 -8 -7 -7 -8 -8 -7 -6 -6 -6 -5 -5
-9 -8 -7 -7 -7 -7 -8 -9 -8 -4 -3 -3 -3 -2 -3 -2 -3 -3 -4 -5 -5 -4 -4 -4 -3 -3 -5 -3 -2 -1 -0 -3 -1 -1 0 0 -5 -6 -7 -7 -8 -9 -9 -10 -10 -9 -9 -9 -8 -7 -7 -6 -6 -6
-9 -9 -9 -9 -8 -9 -9 -7 -4 -3 -3 -2 -2 -2 -2 -3 -3 -4 -4 -4 -3 -4 -3 -2 -2 -3 -3 -0 -2 -2 -1 -3 -4 -2 -1 -4 -5 -7 -7 -8 -9 -9 -10 -11 -11 -10 -10 -9 -9 -8 -8 -7 -7 -7
-8 -9 -9 -8 -6 -5 -5 -4 -3 -3 -2 -2 -2 -1 -4 -3 -3 -4 -4 -4 -5 -4 -3 -2 -2 -2 -1 -3 -2 -2 -4 -2 -0 -1 -3 -6 -7 -7 -8 -9 -10 -10 -11 -12 -12 -11 -11 -10 -10 -10 -9 -9 -9 -8
-5 -5 -4 -4 -4 -3 -3 -3 -2 -2 -2 -2 -2 -3 -3 -5 -3 -3 -3 -3 -3 -2 -2 -1 -2 -1 -3 -3 -3 -4 -3 -2 -4 -6 -9 -7 -8 -9 -9 -9 -11 -12 -12 -13 -13 -13 -12 -12 -11 -11 -11 -10 -10 -10
-3 -3 -2 -2 -2 -2 -2 -3 -2 -2 -4 -6 -5 -4 -3 -3 -3 -3 -2 -3 -2 -2 -1 -2 -4 -4 -2 -4 -2 -4 -3 -5 -9 -9 -8 -9 -10 -11 -11 -11 -12 -12 -12 -13 -13 -14 -14 -14 -13 -12 -12 -12 -12 -11
-2 -2 -1 -1 -1 -2 -2 -2 -2 -5 -6 -7 -8 -6 -5 -6 -6 -6 -5 -4 -2 -1 -3 -4 -6 -5 -4 -3 -5 -8 -11 -11 -9 -8 -8 -9 -11 -11 -11 -11 -11 -12 -12 -12 -12 -13 -13 -14 -14 -13 -13 -13 -13 -13
-2 -2 -1 -1 -2 -2 -2 -2 -5 -6 -7 -8 -9 -9 -9 -8 -8 -7 -7 -5 -3 -3 -3 -5 -6 -5 -5 -4 -10 -13 -10 -9 -9 -10 -10 -8 -9 -11 -12 -11 -11 -12 -12 -12 -12 -13 -13 -14 -14 -14 -14 -14 -14 -14
-2 -1 -1 -1 -2 -3 -4 -6 -8 -7 -8 -8 -9 -9 -9 -10 -9 -8 -7 -7 -6 -7 -8 -12 -12 -12 -15 -12 -12 -11 -11 -10 -10 -10 -10 -9 -9 -10 -11 -12 -12 -12 -13 -13 -13 -13 -14 -15 -15 -15 -15 -15 -15 -15
-2 -2 -2 -2 -4 -5 -7 -8 -9 -8 -8 -8 -9 -10 -11 -11 -10 -9 -8 -7 -7 -10 -12 -12 -14 -13 -12 -12 -11 -11 -11 -11 -10 -10 -11 -10 -10 -10 -11 -11 -12 -12 -12 -13 -13 -14 -14 -14 -15 -15 -15 -15 -15 -15
-2 -2 -4 -4 -6 -7 -8 -8 -8 -9 -10 -10 -10 -11 -11 -11 -12 -12 -13 -12 -13 -13 -13 -12 -12 -12 -12 -12 -12 -11 -11 -11 -11 -11 -11 -12 -11 -11 -11 -12 -12 -12 -13 -13 -13 -14 -14 -15 -15 -16 -16 -16 -16 -16
-3 -2 -2 -5 -9 -9 -9 -9 -10 -10 -9 -8 -10 -12 -12 -12 -13 -14 -15 -15 -14 -13 -13 -12 -12 -12 -12 -12 -12 -12 -12 -11 -12 -12 -12 -13 -12 -12 -12 -13 -13 -13 -13 -14 -14 -14 -15 -15 -16 -16 -16 -16 -16 -16
-3 -4 -4 -5 -7 -9 -8 -6 -7 -8 -10 -8 -10 -11 -13 -11 -12 -15 -14 -14 -14 -14 -13 -13 -12 -12 -13 -13 -13 -13 -13 -13 -13 -13 -14 -14 -13 -13 -14 -14 -14 -14 -14 -14 -15 -15 -15 -16 -16 -16 -16 -16 -16 -17
-3 -5 -6 -6 -7 -8 -6 -6 -7 -7 -7 -11 -12 -12 -13 -13 -15 -15 -16 -14 -14 -14 -13 -13 -13 -13 -13 -13 -13 -13 -14 -14 -14 -14 -14 -14 -14 -14 -14 -14 -14 -14 -15 -15 -15 -15 -15 -16 -16 -16 -16 -16 -16 -16
-7 -11 -9 -13 -9 -11 -12 -12 -11 -11 -10 -11 -11 -12 -12 -13 -15 -15 -16 -14 -15 -14 -14 -14 -14 -14 -14 -14 -14 -14 -14 -14 -14 -15 -15 -14 -14 -14 -14 -14 -15 -15 -15 -15 -15 -15 -15 -16 -16 -16 -16 -16 -16 -16
-12 -12 -12 -12 -12 -11 -11 -12 -13 -12 -12 -12 -11 -13 -16 -15 -15 -14 -15 -15 -15 -15 -14 -15 -15 -15 -15 -15 -14 -14 -14 -14 -14 -14 -14 -14 -14 -14 -14 -15 -15 -15 -15 -15 -15 -15 -15 -16 -17 -17 -16 -16 -16 -16
-13 -14 -13 -13 -12 -13 -14 -15 -14 -13 -13 -12 -13 -17 -17 -18 -17 -15 -15 -15 -15 -15 -15 -15 -15 -15 -15 -15 -15 -15 -15 -14 -14 -15 -15 -15 -15 -15 -15 -15 -15 -15 -15 -15 -15 -15 -16 -16 -17 -19 -20 -21 -21 -21
-14 -15 -15 -15 -16 -16 -17 -17 -17 -17 -15 -14 -18 -20 -20 -20 -17 -15 -15 -15 -15 -15 -16 -16 -15 -15 -15 -15 -15 -15 -15 -16 -16 -16 -16 -16 -16 -16 -16 -16 -16 -16 -16 -16 -16 -16 -16 -16 -17 -18 -19 -18 -19 -20
-16 -17 -17 -18 -16 -17 -17 -18 -17 -16 -15 -17 -20 -20 -18 -17 -16 -16 -15 -15 -15 -15 -15 -16 -16 -16 -16 -16 -15 -15 -16 -16 -16 -16 -16 -16 -16 -16 -17 -16 -16 -16 -16 -16 -16 -16 -16 -16 -16 -17 -17 -18 -18 -18
-16 -16 -16 -17 -20 -19 -17 -18 -17 -16 -17 -18 -18 -18 -17 -17 -17 -16 -16 -16 -16 -16 -16 -16 -16 -17 -16 -16 -16 -16 -16 -16 -16 -16 -17 -17 -17 -17 -17 -17 -17 -17 -17 -17 -17 -17 -17 -17 -17 -17 -18 -18 -18 -19
-16 -16 -16 -17 -18 -17 -17 -17 -17 -18 -18 -18 -18 -18 -18 -18 -18 -17 -18 -18 -18 -17 -17 -17 -17 -17 -17 -17 -17 -17 -17 -17 -17 -17 -17 -17 -18 -18 -18 -18 -18 -19 -19 -18 -19 -20 -22 -23 -23 -22 -22 -22 -22 -21
-17 -17 -17 -19 -17 -17 -15 -17 -17 -17 -17 -17 -17 -18 -18 -18 -18 -18 -18 -18 -19 -21 -20 -21 -24 -26 -27 -27 -28 -28 -28 -27 -27 -27 -27 -26 -26 -25 -24 -24 -23 -23 -22 -20 -19 -19 -20 -20 -21 -21 -20 -21 -21 -21
-16 -16 -16 -16 -16 -16 -15 -14 -15 -15 -15 -15 -16 -16 -17 -18 -18 -18 -18 -18 -21 -25 -27 -27 -27 -27 -27 -28 -27 -27 -27 -28 -28 -28 -28 -28 -28 -28 -27 -26 -26 -25 -25 -24 -23 -22 -21 -21 -21 -22 -22 -23 -23 -24

GFSWCAN_850_dewp_117.txt.gz
Dewpoint
-4 -4 -5 -6 -4 -4 -4 -6 -6 -5 -5 -5 -6 -6 -6 -5 -5 -5 -6 -6 -4 -5 -6 -7 -7 -6 -6 -5 -4 -5 -5 -5 -3 -3 -2 -2 -1 -3 -1 -1 0 1 1 2 1 1 0 1 -1 0 2 2 2 3
-7 -7 -5 -7 -8 -3 -4 -6 -4 -5 -5 -5 -7 -6 -6 -5 -5 -5 -4 -5 -4 -4 -5 -6 -7 -7 -7 -7 -5 -6 -4 -4 -4 -2 -3 -2 -2 -2 -2 -1 1 1 1 1 1 -2 -1 0 1 2 3 1 2 3
-5 -6 -7 -6 -6 -5 -4 -6 -4 -5 -6 -6 -6 -6 -6 -6 -4 -4 -4 -3 -4 -3 -4 -4 -8 -8 -9 -9 -7 -5 -6 -6 -4 -2 -1 -1 -2 -3 -1 -2 -0 -1 -0 2 2 2 2 1 2 2 2 2 2 2
-4 -5 -7 -5 -5 -5 -4 -7 -7 -6 -6 -6 -6 -7 -6 -6 -6 -4 -5 -4 -4 -4 -4 -6 -8 -8 -9 -9 -8 -6 -6 -5 -2 -3 -3 -2 -3 -3 -2 -3 -2 0 1 1 1 1 0 1 0 1 0 0 0 -0
-5 -5 -5 -4 -4 -4 -5 -7 -7 -6 -7 -7 -6 -6 -7 -7 -5 -4 -5 -4 -4 -5 -4 -5 -8 -12 -9 -9 -7 -8 -7 -4 -3 -3 -2 -3 -3 -1 -2 -1 0 -1 0 0 1 -1 -1 -1 -1 -1 0 0 -0 -2
-5 -6 -6 -6 -5 -5 -6 -7 -7 -8 -6 -6 -7 -6 -8 -5 -5 -6 -5 -6 -5 -5 -4 -4 -8 -9 -9 -8 -9 -8 -6 -5 -3 -3 -3 -3 -3 -3 -1 -1 -1 -2 -2 -3 -2 -2 -1 -1 -1 -1 -1 -0 -0 -1
-6 -7 -6 -5 -5 -5 -6 -7 -8 -7 -5 -6 -5 -6 -7 -8 -5 -6 -5 -3 -3 -4 -4 -4 -6 -8 -7 -4 -5 -5 -4 -4 -4 -3 -2 -3 -3 -1 -2 -2 -2 -3 -4 -3 -4 -3 -3 -3 -3 -2 -2 -2 -1 -2
-7 -7 -6 -6 -5 -4 -5 -7 -8 -6 -6 -5 -5 -7 -7 -7 -5 -5 -7 -3 -4 -4 -4 -4 -5 -6 -5 -4 -3 -4 -3 -3 -2 -2 -2 -1 -1 -1 -1 -2 -3 -4 -4 -5 -5 -4 -5 -4 -4 -4 -4 -3 -3 -3
-7 -8 -7 -6 -7 -5 -7 -6 -6 -5 -5 -5 -6 -8 -5 -4 -4 -5 -7 -5 -3 -3 -4 -5 -4 -4 -4 -2 -1 -1 -1 -1 -2 -1 -1 -0 -1 0 -2 -4 -5 -6 -6 -6 -6 -5 -6 -6 -5 -5 -5 -5 -5 -4
-7 -8 -7 -6 -7 -7 -7 -7 -5 -5 -7 -8 -7 -5 -4 -5 -6 -5 -3 -3 -4 -3 -3 -4 -6 -4 -4 -1 -1 -1 -1 0 0 0 -1 0 -2 -3 -4 -5 -6 -7 -8 -8 -8 -8 -7 -7 -7 -7 -6 -6 -6 -6
-8 -7 -7 -7 -7 -8 -7 -5 -5 -5 -5 -5 -4 -4 -4 -4 -3 -4 -3 -3 -3 -3 -4 -4 -5 -4 -6 -2 -2 -1 -0 -0 0 -0 1 0 -2 -5 -5 -6 -7 -9 -9 -10 -10 -9 -9 -9 -9 -8 -7 -7 -6 -6
-7 -8 -7 -7 -6 -6 -6 -5 -5 -5 -6 -6 -3 -3 -3 -3 -3 -3 -4 -4 -5 -4 -4 -4 -4 -4 -5 -5 -2 -1 -0 -2 -0 -1 0 -0 -5 -6 -6 -7 -8 -9 -10 -11 -11 -11 -10 -10 -9 -8 -8 -8 -8 -7
-9 -9 -9 -8 -6 -6 -5 -5 -6 -8 -7 -3 -3 -3 -2 -3 -3 -4 -4 -4 -4 -5 -4 -3 -2 -3 -3 -1 -2 -1 -1 -2 -4 -2 -1 -5 -6 -7 -8 -9 -9 -10 -11 -12 -12 -12 -11 -11 -10 -10 -9 -9 -9 -8
-10 -9 -8 -8 -6 -5 -6 -7 -9 -9 -5 -3 -3 -2 -3 -4 -3 -4 -4 -4 -6 -5 -3 -3 -2 -2 -2 -1 -2 -1 -2 -2 -1 -1 -2 -6 -7 -8 -9 -10 -11 -12 -13 -13 -13 -13 -13 -12 -12 -11 -11 -10 -10 -10
-9 -9 -8 -7 -7 -7 -8 -9 -8 -4 -4 -3 -2 -3 -3 -6 -4 -4 -5 -4 -3 -4 -3 -2 -2 -1 -2 -2 -2 -3 -2 -2 -3 -4 -7 -7 -8 -10 -11 -12 -12 -13 -13 -13 -13 -14 -14 -14 -14 -13 -12 -11 -11 -11
-9 -8 -9 -9 -9 -9 -9 -7 -4 -4 -3 -5 -5 -4 -4 -3 -3 -2 -3 -3 -3 -3 -2 -2 -3 -2 -2 -3 -2 -2 -3 -3 -7 -8 -8 -9 -10 -11 -11 -11 -12 -12 -12 -12 -12 -13 -14 -14 -14 -14 -13 -13 -12 -12
-5 -4 -6 -6 -6 -5 -4 -4 -4 -4 -5 -6 -8 -6 -5 -5 -5 -6 -4 -4 -2 -2 -0 -4 -4 -3 -4 -2 -4 -8 -6 -9 -9 -8 -8 -8 -9 -11 -11 -11 -11 -12 -12 -12 -12 -13 -14 -15 -14 -14 -14 -14 -13 -13
-4 -5 -3 -4 -4 -4 -4 -4 -5 -6 -8 -8 -9 -9 -9 -8 -8 -7 -6 -5 -3 -2 -3 -4 -5 -4 -5 -2 -7 -11 -10 -10 -9 -10 -10 -9 -9 -10 -11 -12 -12 -12 -12 -12 -13 -13 -14 -15 -15 -15 -15 -15 -15 -14
-2 -2 -2 -3 -4 -4 -4 -6 -6 -8 -8 -9 -9 -9 -10 -10 -10 -8 -8 -7 -5 -5 -6 -8 -9 -10 -12 -12 -12 -11 -11 -11 -10 -10 -10 -10 -9 -10 -10 -11 -12 -12 -12 -12 -13 -13 -14 -15 -15 -15 -15 -15 -15 -15
-2 -2 -3 -2 -3 -4 -6 -7 -9 -8 -8 -9 -9 -10 -11 -11 -10 -10 -8 -7 -7 -9 -12 -12 -13 -13 -12 -12 -12 -11 -11 -11 -11 -10 -11 -11 -11 -11 -11 -11 -11 -12 -12 -13 -14 -14 -14 -15 -15 -15 -16 -16 -16 -16
-3 -2 -2 -2 -8 -9 -9 -9 -9 -9 -9 -10 -10 -10 -11 -11 -11 -11 -11 -11 -12 -13 -13 -12 -12 -12 -12 -12 -12 -12 -11 -11 -11 -12 -12 -12 -12 -12 -12 -12 -13 -13 -13 -14 -14 -15 -15 -15 -16 -16 -16 -16 -16 -16
-4 -4 -4 -6 -10 -10 -10 -10 -10 -10 -9 -9 -11 -12 -12 -13 -14 -14 -14 -14 -14 -14 -13 -13 -12 -12 -12 -12 -12 -12 -12 -12 -12 -13 -13 -13 -13 -14 -14 -14 -14 -14 -14 -14 -15 -15 -15 -16 -16 -16 -16 -17 -17 -17
-4 -5 -5 -6 -8 -9 -8 -7 -8 -9 -10 -9 -11 -12 -13 -12 -13 -15 -15 -14 -14 -14 -13 -13 -13 -13 -13 -13 -13 -13 -13 -13 -14 -14 -14 -14 -14 -14 -15 -15 -15 -15 -15 -15 -15 -15 -16 -16 -16 -16 -17 -17 -17 -17
-4 -5 -7 -7 -8 -8 -6 -6 -7 -8 -9 -11 -12 -13 -13 -14 -16 -16 -15 -15 -15 -14 -13 -13 -13 -13 -13 -13 -13 -13 -13 -14 -14 -14 -14 -14 -14 -15 -14 -15 -15 -15 -15 -15 -15 -15 -16 -16 -16 -16 -17 -17 -17 -17
-5 -10 -9 -12 -9 -11 -13 -14 -12 -11 -12 -12 -12 -13 -13 -14 -15 -16 -16 -15 -15 -14 -14 -14 -14 -14 -14 -14 -14 -14 -14 -14 -14 -14 -14 -14 -14 -14 -14 -15 -15 -15 -15 -15 -15 -15 -16 -16 -16 -16 -16 -17 -17 -17
-12 -12 -13 -13 -13 -12 -12 -13 -14 -13 -12 -13 -12 -13 -16 -15 -15 -14 -15 -15 -15 -15 -15 -15 -15 -15 -15 -15 -15 -14 -14 -14 -14 -14 -15 -15 -15 -15 -15 -15 -15 -15 -15 -15 -15 -15 -16 -18 -17 -16 -16 -16 -17 -17
-13 -14 -14 -13 -13 -13 -14 -14 -14 -13 -13 -13 -13 -15 -15 -15 -16 -15 -15 -15 -15 -15 -15 -15 -15 -15 -15 -15 -15 -15 -15 -15 -15 -15 -15 -15 -15 -15 -15 -15 -15 -16 -15 -15 -15 -16 -16 -16 -17 -19 -20 -20 -20 -21
-14 -14 -14 -16 -16 -16 -16 -16 -15 -15 -14 -15 -18 -18 -18 -18 -16 -16 -15 -15 -15 -16 -16 -15 -15 -15 -15 -15 -15 -15 -16 -16 -16 -16 -16 -16 -16 -16 -16 -16 -16 -16 -16 -16 -16 -16 -16 -16 -17 -17 -18 -19 -21 -22
-16 -17 -17 -18 -18 -18 -18 -18 -17 -16 -16 -18 -19 -18 -18 -17 -17 -16 -16 -15 -16 -16 -16 -16 -16 -16 -16 -16 -15 -16 -16 -16 -16 -16 -16 -16 -16 -17 -17 -17 -17 -17 -16 -16 -16 -16 -16 -16 -17 -17 -17 -17 -17 -17
-16 -16 -18 -19 -20 -19 -18 -18 -17 -17 -17 -18 -18 -18 -18 -18 -17 -16 -16 -16 -16 -16 -16 -16 -16 -17 -16 -16 -16 -16 -16 -16 -16 -17 -17 -17 -17 -17 -17 -17 -17 -17 -17 -17 -17 -17 -17 -17 -17 -17 -17 -18 -18 -18
-16 -17 -18 -18 -19 -18 -18 -18 -17 -18 -18 -18 -18 -18 -18 -18 -18 -17 -17 -17 -17 -17 -17 -17 -17 -17 -17 -17 -17 -17 -17 -17 -17 -17 -19 -20 -22 -22 -22 -22 -22 -22 -21 -19 -19 -20 -21 -21 -21 -21 -21 -21 -22 -21
-17 -17 -19 -20 -17 -17 -16 -17 -18 -18 -18 -18 -18 -18 -18 -18 -18 -18 -18 -18 -18 -18 -19 -21 -25 -26 -27 -28 -28 -28 -28 -28 -28 -28 -28 -28 -28 -27 -26 -26 -25 -24 -23 -23 -21 -20 -20 -21 -21 -21 -21 -21 -21 -21
-17 -17 -17 -16 -17 -17 -16 -15 -16 -16 -16 -16 -17 -17 -17 -18 -18 -18 -18 -19 -22 -26 -27 -27 -28 -28 -28 -28 -28 -28 -28 -28 -28 -28 -28 -28 -28 -28 -28 -27 -27 -26 -26 -25 -24 -23 -22 -21 -22 -23 -23 -24 -24 -24

GFSWCAN_850_dewp_120.txt.gz
Dewpoint
-2 -2 -2 -3 -4 -4 -2 -3 -6 -6 -2 -3 -4 -8 -8 -5 -4 -5 -4 -8 -3 -4 -5 -5 -5 -6 -6 -6 -5 -7 -6 -5 -5 -3 -3 -5 -3 -5 -2 -2 0 1 2 2 1 2 1 -3 -4 1 0 1 1 1
-3 -2 -3 -4 -4 -4 -4 -3 -5 -7 -5 -4 -5 -7 -7 -6 -5 -4 -3 -6 -5 -4 -4 -6 -7 -5 -5 -6 -6 -6 -6 -6 -5 -2 -4 -2 -2 -3 -2 -0 -1 1 1 1 2 1 1 0 1 0 0 2 2 2
-3 -4 -5 -5 -6 -7 -5 -4 -6 -6 -4 -4 -6 -7 -6 -7 -6 -5 -3 -4 -4 -4 -4 -4 -5 -5 -9 -10 -4 -5 -7 -6 -5 -3 -1 -3 -3 -5 -2 -2 -1 -1 -1 2 1 1 -0 -1 -1 0 1 0 -0 -0
-4 -5 -5 -6 -6 -7 -8 -5 -4 -5 -4 -6 -6 -6 -6 -7 -5 -4 -4 -4 -4 -4 -3 -7 -8 -9 -9 -9 -8 -6 -6 -4 -4 -4 -4 -3 -4 -7 -4 -4 -2 0 1 -0 1 -1 -1 -1 -1 -2 -1 -1 -1 -1
-5 -4 -5 -6 -7 -6 -6 -5 -5 -6 -5 -6 -6 -6 -6 -6 -4 -4 -5 -3 -3 -3 -4 -5 -6 -7 -10 -6 -7 -5 -4 -4 -5 -4 -3 -3 -6 -4 -4 -4 0 -1 -0 -0 0 -2 -2 -1 -2 -2 -2 -3 -2 -2
-5 -4 -4 -4 -5 -5 -5 -5 -5 -7 -7 -7 -6 -6 -6 -7 -6 -4 -3 -5 -4 -4 -3 -5 -7 -6 -5 -5 -5 -4 -4 -4 -4 -3 -4 -4 -5 -3 -2 -3 -2 -3 -2 -4 -3 -3 -2 -2 -2 -2 -2 -3 -3 -3
-7 -5 -4 -4 -4 -4 -4 -4 -6 -7 -6 -7 -6 -7 -6 -7 -6 -5 -4 -4 -5 -4 -4 -5 -6 -7 -7 -3 -3 -4 -3 -3 -3 -4 -4 -5 -5 -1 -2 -3 -3 -3 -3 -4 -4 -4 -4 -3 -3 -3 -3 -3 -3 -4
-7 -5 -4 -4 -4 -4 -4 -7 -7 -8 -7 -5 -6 -5 -6 -7 -5 -5 -5 -4 -4 -4 -4 -4 -5 -5 -3 -3 -3 -3 -3 -3 -2 -3 -3 -3 -1 -1 -1 -3 -4 -5 -4 -4 -6 -5 -5 -5 -5 -4 -4 -4 -4 -4
-8 -6 -5 -5 -5 -4 -4 -6 -7 -8 -5 -5 -5 -6 -6 -5 -5 -4 -6 -7 -5 -4 -4 -5 -4 -4 -3 -2 -1 -1 -2 -1 -2 -1 -2 -1 -2 -1 -3 -4 -5 -6 -7 -8 -7 -7 -7 -6 -6 -6 -5 -5 -5 -5
-8 -5 -6 -6 -5 -4 -4 -5 -7 -7 -5 -5 -5 -6 -5 -5 -6 -5 -4 -4 -4 -4 -3 -4 -6 -4 -5 -2 -1 -1 -1 1 1 -2 -1 0 -1 -4 -4 -5 -6 -7 -9 -9 -8 -8 -8 -7 -7 -7 -6 -6 -7 -7
-7 -6 -7 -6 -5 -6 -5 -5 -6 -6 -5 -5 -7 -6 -5 -6 -5 -4 -3 -3 -3 -3 -3 -5 -6 -5 -5 -4 -4 -3 -0 0 1 0 0 1 -0 -5 -5 -6 -7 -8 -10 -10 -10 -9 -9 -8 -8 -8 -8 -8 -8 -8
-5 -6 -8 -6 -5 -5 -6 -6 -5 -5 -5 -7 -8 -4 -4 -3 -3 -3 -3 -3 -4 -6 -5 -4 -4 -5 -5 -3 -3 -1 -0 0 1 -1 1 -1 -5 -6 -7 -8 -8 -9 -11 -11 -11 -11 -10 -10 -10 -10 -9 -9 -9 -8
-6 -7 -6 -6 -5 -6 -6 -5 -5 -5 -7 -7 -3 -3 -3 -3 -2 -3 -3 -4 -4 -5 -4 -4 -3 -3 -3 -2 -2 -0 0 -1 -3 -1 -2 -4 -6 -7 -8 -8 -9 -11 -13 -12 -12 -12 -13 -12 -12 -12 -11 -10 -10 -9
-6 -7 -6 -6 -6 -6 -6 -5 -5 -5 -6 -5 -3 -1 -3 -2 -3 -4 -6 -6 -6 -4 -3 -3 -2 -2 -1 -1 -1 -0 -1 -2 -1 -1 -2 -6 -7 -8 -8 -9 -10 -11 -13 -13 -13 -14 -14 -14 -14 -14 -13 -12 -11 -10
-8 -8 -7 -7 -6 -6 -6 -5 -5 -5 -7 -4 -3 -2 -2 -3 -3 -3 -3 -3 -3 -2 -2 -1 -1 -1 -0 0 -1 -1 -1 -2 -2 -1 -5 -7 -8 -8 -9 -9 -10 -12 -13 -13 -13 -14 -14 -15 -15 -14 -13 -13 -12 -12
-9 -9 -8 -6 -5 -6 -5 -5 -5 -5 -6 -4 -5 -3 -3 -3 -2 -2 -2 -3 -3 -2 -1 -1 -0 -1 0 -1 -1 -1 -2 -2 -3 -6 -7 -8 -8 -10 -11 -11 -12 -12 -13 -13 -13 -14 -14 -15 -15 -15 -14 -14 -13 -13
-10 -6 -7 -6 -5 -5 -5 -5 -5 -5 -4 -5 -5 -6 -5 -3 -2 -4 -3 -4 -4 -2 -0 -1 -0 -1 -2 -1 -2 -4 -2 -5 -7 -7 -7 -8 -8 -9 -11 -11 -11 -12 -12 -13 -13 -13 -14 -15 -15 -15 -14 -14 -14 -14
-5 -7 -7 -6 -5 -5 -6 -5 -4 -5 -6 -6 -6 -7 -8 -8 -6 -7 -6 -4 -3 -2 -1 -1 -3 -1 -1 -2 -2 -7 -8 -8 -8 -8 -8 -9 -9 -10 -10 -10 -11 -12 -12 -12 -13 -13 -14 -14 -14 -14 -15 -15 -15 -15
-7 -9 -9 -9 -7 -5 -5 -5 -5 -7 -7 -8 -8 -9 -9 -9 -9 -8 -7 -6 -5 -4 -5 -5 -3 -3 -6 -9 -8 -9 -9 -9 -9 -9 -10 -10 -10 -10 -10 -11 -11 -11 -12 -13 -13 -13 -14 -15 -15 -15 -15 -15 -15 -16
-4 -5 -6 -8 -6 -4 -6 -7 -7 -7 -7 -8 -8 -9 -9 -9 -10 -9 -8 -8 -7 -8 -8 -8 -9 -10 -10 -10 -10 -10 -10 -10 -9 -9 -9 -10 -11 -11 -11 -12 -12 -12 -12 -13 -14 -14 -14 -14 -15 -16 -16 -16 -16 -16
-4 -4 -5 -4 -4 -6 -7 -7 -7 -8 -8 -9 -9 -9 -9 -9 -9 -9 -10 -10 -10 -11 -11 -11 -11 -12 -12 -12 -11 -11 -11 -11 -11 -10 -11 -11 -12 -12 -12 -13 -13 -13 -13 -14 -14 -14 -15 -15 -16 -16 -17 -17 -17 -17
-4 -4 -4 -5 -6 -9 -8 -9 -8 -8 -8 -8 -9 -10 -9 -9 -10 -11 -12 -11 -12 -12 -12 -11 -12 -12 -12 -12 -12 -12 -12 -13 -13 -12 -13 -13 -12 -13 -13 -14 -13 -14 -14 -15 -15 -15 -16 -16 -16 -17 -17 -17 -17 -17
-3 -3 -4 -5 -8 -8 -8 -7 -7 -8 -8 -9 -10 -10 -10 -10 -12 -14 -13 -13 -13 -14 -13 -13 -13 -13 -13 -13 -13 -13 -13 -13 -13 -13 -13 -14 -14 -14 -14 -15 -15 -15 -15 -15 -16 -16 -16 -16 -16 -17 -17 -17 -17 -17
-2 -4 -6 -7 -7 -6 -6 -7 -8 -9 -9 -10 -10 -10 -12 -12 -14 -14 -13 -14 -13 -13 -13 -13 -13 -13 -13 -13 -13 -14 -13 -14 -14 -14 -14 -14 -14 -14 -15 -15 -15 -15 -15 -15 -15 -16 -16 -16 -16 -17 -17 -17 -17 -17
-5 -9 -9 -8 -8 -8 -8 -8 -8 -9 -9 -10 -10 -11 -11 -13 -13 -14 -14 -14 -14 -13 -14 -14 -14 -13 -13 -14 -14 -14 -14 -14 -14 -14 -14 -15 -14 -14 -15 -15 -15 -15 -15 -16 -16 -16 -16 -16 -16 -17 -17 -17 -17 -17
-10 -11 -10 -10 -9 -9 -9 -9 -9 -9 -10 -10 -11 -12 -13 -13 -13 -13 -15 -14 -14 -14 -14 -14 -14 -15 -15 -15 -15 -15 -14 -14 -14 -15 -15 -15 -15 -15 -15 -15 -15 -15 -15 -15 -15 -16 -16 -17 -16 -16 -16 -16 -17 -17
-11 -11 -13 -14 -12 -12 -11 -12 -12 -11 -10 -11 -12 -12 -12 -12 -13 -15 -14 -15 -15 -15 -15 -15 -15 -15 -15 -15 -15 -15 -15 -15 -15 -15 -16 -16 -16 -16 -16 -16 -16 -16 -16 -16 -16 -16 -16 -16 -17 -18 -18 -17 -17 -17
-13 -13 -13 -14 -15 -15 -14 -14 -13 -13 -13 -14 -14 -13 -13 -14 -15 -15 -15 -15 -16 -16 -16 -16 -15 -15 -15 -15 -15 -16 -16 -16 -16 -16 -16 -16 -16 -16 -16 -16 -16 -16 -16 -16 -16 -16 -16 -16 -16 -17 -17 -18 -20 -20
-14 -15 -16 -17 -16 -16 -16 -15 -15 -15 -16 -16 -15 -16 -17 -18 -17 -17 -16 -16 -16 -16 -16 -16 -16 -16 -16 -16 -16 -16 -16 -16 -17 -16 -16 -17 -17 -17 -17 -17 -17 -17 -17 -16 -16 -16 -16 -16 -17 -17 -17 -17 -17 -17
-15 -16 -17 -18 -18 -17 -17 -18 -17 -17 -17 -17 -17 -18 -18 -19 -17 -16 -16 -16 -16 -16 -16 -16 -16 -16 -16 -16 -16 -16 -16 -16 -16 -17 -17 -17 -17 -17 -17 -17 -17 -17 -17 -17 -17 -17 -17 -17 -17 -17 -17 -17 -18 -18
-16 -16 -17 -17 -17 -17 -18 -17 -18 -18 -18 -18 -18 -17 -18 -18 -17 -16 -16 -17 -17 -17 -17 -17 -17 -17 -17 -16 -16 -17 -17 -17 -17 -18 -19 -22 -24 -25 -25 -24 -24 -23 -22 -20 -19 -20 -20 -20 -20 -20 -20 -20 -20 -20
-16 -17 -18 -17 -17 -17 -17 -17 -17 -16 -16 -16 -17 -18 -18 -17 -17 -18 -18 -18 -18 -17 -17 -18 -20 -22 -23 -25 -27 -27 -28 -28 -28 -28 -28 -28 -27 -27 -26 -26 -25 -24 -24 -23 -22 -21 -21 -21 -21 -21 -21 -21 -21 -21
-17 -17 -16 -16 -16 -16 -16 -16 -16 -16 -16 -16 -17 -17 -17 -16 -17 -18 -18 -18 -19 -19 -23 -26 -27 -28 -28 -28 -28 -28 -28 -28 -28 -28 -28 -28 -28 -28 -27 -26 -26 -26 -26 -25 -24 -23 -22 -22 -22 -23 -24 -24 -25 -25

GFSWCAN_850_dewp_123.txt.gz
Dewpoint
-3 -4 -4 -4 -6 -5 -4 -3 -3 -4 -4 -4 -5 -9 -8 -5 -5 -4 -3 -3 -4 -4 -5 -6 -6 -7 -7 -8 -7 -7 -6 -4 -5 -3 -3 -5 -3 -3 -2 -3 1 1 1 0 2 2 3 1 -2 4 3 -0 1 2
-3 -2 -4 -4 -3 -3 -3 -3 -2 -3 -2 -3 -4 -6 -9 -7 -5 -3 -2 -3 -2 -3 -4 -3 -4 -5 -6 -7 -7 -7 -7 -7 -6 -2 -3 -3 -2 -4 -2 -0 -1 1 1 1 2 2 1 -0 -1 -1 -0 2 1 -0
-2 -2 -2 -2 -3 -3 -3 -2 -3 -4 -6 -4 -4 -6 -8 -8 -5 -5 -3 -3 -4 -4 -4 -5 -6 -5 -5 -5 -5 -6 -9 -7 -7 -3 -3 -3 -4 -7 -1 -3 -1 0 0 2 1 -0 -1 -1 -2 -2 -2 -2 -1 -1
-2 -2 -2 -2 -3 -4 -4 -3 -3 -5 -5 -4 -4 -5 -7 -7 -7 -5 -3 -3 -3 -3 -4 -6 -7 -5 -6 -6 -5 -4 -6 -6 -6 -4 -4 -4 -3 -7 -5 -5 -3 -0 0 -1 2 -1 -3 -1 -2 -2 -2 -2 -2 -1
-3 -3 -3 -4 -4 -6 -7 -6 -5 -5 -4 -4 -5 -7 -6 -7 -7 -5 -3 -3 -3 -3 -2 -5 -6 -6 -6 -6 -5 -5 -4 -5 -6 -3 -3 -3 -6 -5 -5 -5 0 -3 -1 -0 -0 -2 -2 -1 -2 -2 -2 -2 -2 -2
-4 -4 -3 -3 -5 -5 -6 -7 -7 -5 -5 -5 -7 -6 -6 -6 -4 -3 -4 -4 -3 -5 -3 -4 -7 -7 -6 -6 -6 -5 -5 -5 -5 -3 -5 -5 -6 -4 -1 -3 -2 -3 -2 -2 -3 -4 -4 -2 -2 -3 -3 -3 -3 -4
-7 -5 -4 -4 -4 -6 -6 -6 -5 -6 -7 -6 -7 -6 -6 -6 -5 -3 -3 -3 -5 -3 -3 -4 -6 -7 -5 -4 -4 -5 -5 -5 -4 -2 -3 -5 -6 -2 -2 -3 -1 -4 -3 -3 -4 -4 -4 -4 -4 -5 -4 -4 -4 -4
-9 -6 -4 -4 -4 -5 -5 -5 -4 -5 -7 -6 -7 -5 -6 -6 -4 -3 -5 -4 -5 -4 -3 -3 -5 -7 -5 -4 -2 -3 -3 -3 -3 -4 -5 -4 -3 -2 -1 -2 -4 -5 -5 -5 -7 -5 -6 -6 -6 -6 -6 -5 -5 -5
-11 -7 -4 -4 -4 -4 -4 -4 -4 -7 -7 -7 -5 -5 -5 -4 -4 -3 -4 -5 -5 -3 -3 -4 -3 -3 -4 -4 -1 -1 -1 -1 -3 -1 -3 -3 -2 0 -2 -4 -5 -6 -7 -8 -8 -7 -7 -7 -7 -7 -7 -6 -6 -6
-11 -10 -7 -4 -4 -4 -3 -5 -7 -7 -7 -4 -4 -5 -4 -6 -6 -5 -5 -4 -4 -4 -4 -3 -6 -4 -7 -3 -2 -2 -1 -0 1 -2 -3 -0 -2 -4 -4 -5 -6 -7 -9 -9 -9 -9 -9 -8 -8 -8 -8 -7 -7 -7
-10 -11 -6 -4 -4 -4 -4 -6 -7 -7 -5 -4 -4 -4 -3 -8 -5 -3 -3 -3 -4 -3 -4 -6 -7 -6 -7 -4 -3 -6 1 1 0 0 -0 0 0 -4 -5 -6 -6 -8 -10 -10 -10 -10 -10 -9 -9 -9 -9 -8 -8 -8
-9 -9 -6 -4 -4 -4 -4 -5 -7 -6 -4 -4 -5 -4 -5 -3 -3 -3 -3 -4 -4 -7 -7 -5 -6 -7 -6 -5 -4 -3 -2 0 -0 -1 -0 -1 -4 -6 -6 -7 -8 -9 -11 -11 -12 -11 -11 -11 -10 -10 -10 -9 -10 -10
-8 -7 -5 -5 -5 -4 -4 -5 -6 -6 -5 -7 -6 -4 -3 -3 -2 -3 -3 -3 -4 -6 -5 -5 -3 -4 -4 -4 -3 -1 -0 -1 -3 -1 -2 -3 -6 -7 -7 -8 -10 -11 -11 -11 -12 -12 -12 -12 -12 -13 -13 -13 -12 -11
-7 -5 -5 -5 -5 -5 -4 -5 -6 -5 -4 -6 -3 -2 -2 -2 -4 -6 -7 -6 -7 -4 -4 -4 -3 -3 -2 -2 -1 -1 -2 -2 -0 -1 -1 -5 -6 -7 -8 -9 -10 -10 -11 -13 -13 -12 -14 -15 -15 -14 -14 -14 -12 -12
-5 -6 -7 -5 -5 -5 -5 -5 -5 -5 -4 -4 -3 -3 -2 -4 -3 -3 -3 -4 -3 -3 -3 -3 -3 -2 -1 -1 -1 -1 0 -1 -2 -0 -3 -6 -7 -8 -8 -8 -8 -9 -11 -10 -12 -14 -14 -15 -15 -14 -14 -14 -13 -13
-5 -6 -5 -5 -6 -6 -5 -5 -4 -4 -6 -4 -3 -2 -2 -2 -1 -3 -2 -2 -2 -3 -3 -3 -1 -2 -0 -1 1 -1 -2 -2 -1 -4 -6 -7 -7 -7 -8 -8 -9 -12 -12 -11 -11 -12 -12 -14 -15 -14 -13 -13 -14 -14
-6 -5 -6 -6 -6 -6 -5 -5 -4 -6 -5 -4 -3 -4 -4 -3 -2 -3 -2 -2 -2 -2 -1 -2 -1 -1 -2 -1 -2 -3 -1 -3 -6 -6 -6 -7 -7 -8 -9 -9 -10 -11 -10 -11 -11 -12 -12 -13 -13 -12 -13 -13 -14 -14
-6 -7 -6 -5 -5 -5 -5 -5 -5 -5 -4 -5 -5 -4 -5 -6 -4 -5 -5 -4 -3 -2 -4 -4 -3 -1 -1 -1 -0 -4 -6 -6 -6 -6 -7 -8 -8 -9 -9 -9 -10 -10 -11 -11 -12 -12 -12 -12 -12 -13 -13 -13 -13 -14
-6 -7 -6 -5 -5 -5 -5 -6 -4 -5 -5 -6 -6 -7 -6 -7 -7 -7 -6 -5 -4 -4 -2 -2 -1 -2 -2 -6 -6 -7 -7 -7 -7 -7 -9 -10 -10 -10 -10 -10 -11 -11 -11 -12 -12 -12 -12 -13 -14 -13 -14 -14 -14 -14
-6 -7 -6 -5 -5 -5 -5 -6 -5 -6 -6 -6 -7 -7 -6 -6 -8 -8 -7 -7 -6 -5 -4 -3 -4 -7 -7 -8 -8 -8 -8 -9 -8 -8 -8 -9 -10 -11 -11 -11 -11 -11 -11 -11 -12 -13 -13 -13 -13 -14 -15 -15 -15 -14
-6 -6 -5 -5 -4 -6 -5 -6 -6 -6 -7 -7 -7 -6 -7 -7 -6 -7 -7 -8 -6 -7 -7 -8 -9 -10 -10 -10 -10 -9 -10 -9 -9 -9 -9 -9 -10 -11 -11 -11 -12 -12 -12 -12 -12 -12 -13 -13 -14 -15 -15 -15 -16 -15
-5 -6 -5 -5 -5 -6 -6 -6 -7 -7 -7 -7 -7 -7 -6 -6 -7 -8 -9 -8 -9 -10 -9 -9 -10 -10 -11 -11 -11 -11 -12 -11 -12 -11 -11 -11 -11 -11 -12 -12 -12 -12 -12 -13 -13 -14 -14 -14 -15 -15 -15 -15 -16 -16
-4 -5 -5 -5 -6 -6 -6 -7 -5 -7 -7 -7 -8 -7 -7 -8 -9 -11 -9 -10 -11 -11 -11 -11 -11 -11 -12 -12 -12 -12 -13 -11 -11 -11 -12 -12 -12 -12 -12 -13 -13 -13 -13 -13 -14 -14 -15 -15 -15 -16 -15 -15 -15 -16
-4 -4 -5 -5 -5 -5 -6 -5 -7 -8 -8 -7 -7 -7 -9 -9 -12 -10 -9 -11 -11 -11 -11 -12 -11 -11 -12 -12 -12 -12 -12 -12 -12 -13 -12 -12 -12 -13 -13 -13 -13 -14 -14 -14 -14 -15 -15 -15 -15 -15 -16 -15 -16 -15
-4 -7 -6 -6 -6 -5 -6 -6 -7 -8 -7 -8 -8 -8 -9 -10 -9 -9 -10 -12 -12 -12 -12 -12 -11 -11 -11 -12 -12 -13 -13 -13 -12 -13 -14 -13 -13 -13 -13 -13 -14 -14 -14 -14 -14 -15 -15 -15 -15 -16 -16 -15 -16 -16
-7 -9 -7 -7 -7 -7 -7 -7 -7 -7 -8 -8 -9 -10 -10 -9 -9 -9 -13 -12 -12 -12 -12 -12 -12 -12 -12 -12 -13 -13 -14 -14 -13 -13 -14 -15 -14 -14 -13 -13 -13 -14 -15 -15 -15 -14 -15 -15 -16 -16 -16 -16 -16 -16
-8 -9 -11 -12 -10 -9 -8 -9 -9 -9 -8 -9 -9 -9 -10 -9 -9 -13 -13 -13 -13 -13 -13 -13 -13 -13 -13 -14 -15 -15 -15 -15 -14 -15 -16 -16 -16 -16 -16 -16 -16 -16 -16 -16 -16 -15 -15 -15 -16 -16 -16 -16 -16 -17
-11 -11 -10 -11 -12 -12 -10 -10 -10 -10 -10 -12 -11 -10 -9 -10 -12 -13 -13 -14 -14 -15 -15 -15 -15 -14 -15 -15 -16 -16 -16 -15 -16 -16 -16 -16 -16 -16 -17 -16 -16 -16 -16 -16 -16 -16 -16 -16 -16 -16 -16 -16 -17 -17
-12 -13 -14 -14 -14 -14 -14 -12 -12 -14 -14 -12 -11 -12 -14 -15 -15 -15 -15 -15 -15 -15 -15 -16 -16 -15 -16 -16 -16 -16 -16 -16 -15 -15 -15 -14 -15 -16 -17 -17 -17 -17 -17 -17 -17 -17 -17 -16 -17 -17 -17 -17 -17 -17
-13 -13 -14 -16 -15 -14 -15 -15 -15 -16 -15 -14 -15 -16 -16 -17 -18 -17 -16 -16 -15 -15 -15 -16 -16 -16 -16 -16 -16 -16 -16 -16 -16 -16 -15 -15 -16 -17 -18 -18 -18 -18 -18 -18 -17 -17 -17 -17 -17 -17 -17 -18 -18 -18
-14 -14 -15 -15 -15 -15 -16 -17 -16 -16 -15 -15 -14 -15 -15 -16 -18 -17 -17 -16 -16 -17 -16 -16 -16 -16 -16 -16 -16 -17 -17 -17 -17 -17 -18 -20 -23 -26 -26 -25 -25 -24 -21 -18 -18 -18 -18 -18 -18 -18 -18 -18 -19 -19
-14 -15 -15 -15 -16 -16 -16 -14 -14 -15 -14 -14 -15 -16 -16 -14 -14 -17 -17 -17 -17 -17 -16 -17 -16 -17 -17 -17 -19 -21 -23 -26 -28 -28 -28 -28 -28 -28 -27 -26 -26 -25 -24 -20 -19 -19 -19 -19 -19 -19 -19 -19 -20 -20
-15 -14 -15 -15 -15 -15 -15 -14 -15 -14 -14 -14 -14 -14 -14 -14 -14 -15 -18 -18 -17 -17 -17 -18 -22 -26 -27 -28 -28 -28 -28 -28 -28 -28 -28 -28 -28 -28 -27 -27 -27 -27 -26 -24 -22 -21 -21 -21 -20 -23 -25 -26 -26 -26